| State | Missouri | Latest | Good (157 cfs) | |
| River | Little Piney Creek | Rating | Observed | Estimated |
| Updated | 2026-05-10 17:00 (35 minutes ago) | Flood - The river is flooding. Obstacles can be treacherous or deadly. The river should be avoided at this stage for casual trips and definitely for the inexperienced. Trips should be attempted only with protective gear and equipment.Flood | (none) | 535 |
| Discharge | 157 cfs (median: 174 cfs) | High - The river is high and potentially dangerous, especially for the young and / or inexperienced. Normal stream obstacles are sometimes difficult to navigate. Extended distances can be attempted, but canoe travel may not be advisable.High | (none) | 280 |
| Height | 2.85 feet | Good - Conditions are ideal for a canoe or kayak. Boats typically will drag on fewer than one-quarter of riffles, if at all, and portages are unnecessary or rare. Normal float lengths can be attempted without a problem.Good | (none) | 154 |
| Trend | Steady (falling over 24 hours) | Low - River is low but can still be floated. Some riffles are okay but most come with significant dragging and might need a portage. Float lengths should be reduced to accommodate low flow, dragging, and portages.Low | 140 | 111 |
| USGS | USGS Site ( Duck Duck Go Maps) | Poor - River is too low to float comfortably. Most or all riffles will drag or must be portaged and some obstacles (such as slick shelf rock) cause undue problems. Avoid the river at this stage for casual paddling trips.Poor | (none) | 68 |
A total of 1 rows are displayed.
| Miles | 4.8 |
| Trips | 1 |
| People | 3 |
| Dates | 1 |
| Years | 1 |
| Months | 1 |
| Rows | 1 |
| Sources | 1 |
BLG - Bluegill
CCF - Channel Catfish
CP - Chain Pickerel
FWD - Freshwater Drum
GSF - Green Sunfish
KSB - Kentucky Spotted Bass
LMB - Largemouth Bass
LSF - Longear Sunfish
RB - Rock Bass / Goggle Eye
RSF - Redear Sunfish
RT - Rainbow Trout
SMB - Smallmouth Bass
WB - White Bass
WF - Whitefish
WL - WalleyeThe classic River Trips application is still available for use. It is updated with the new system using a data retrofit. It is no longer maintained. The original River Trips application is no longer updated (as of 1 Dec 2016) but can be checked for errors or for the condition of the data before it was converted to the new system.
| Observation | Height | Discharge | Maximum Discharge | Minimum Discharge | Mean Discharge | P05 | P10 | P20 | P25 | P50 (Median) | P75 | P80 | P90 | P95 |
|---|---|---|---|---|---|---|---|---|---|---|---|---|---|---|
| 2026-05-10 17:00 | 2.85 | 157 | 3420 (1950) | 45 (1956) | 266 | 53 | 71 | 95 | 106 | 174 | 290 | 335 | 484 | 822 |
| 2026-05-10 16:00 | 2.85 | 157 | 3420 (1950) | 45 (1956) | 266 | 53 | 71 | 95 | 106 | 174 | 290 | 335 | 484 | 822 |
| 2026-05-10 15:00 | 2.86 | 158 | 3420 (1950) | 45 (1956) | 266 | 53 | 71 | 95 | 106 | 174 | 290 | 335 | 484 | 822 |
| 2026-05-10 14:00 | 2.86 | 158 | 3420 (1950) | 45 (1956) | 266 | 53 | 71 | 95 | 106 | 174 | 290 | 335 | 484 | 822 |
| 2026-05-10 13:00 | 2.86 | 158 | 3420 (1950) | 45 (1956) | 266 | 53 | 71 | 95 | 106 | 174 | 290 | 335 | 484 | 822 |
| 2026-05-10 12:00 | 2.87 | 160 | 3420 (1950) | 45 (1956) | 266 | 53 | 71 | 95 | 106 | 174 | 290 | 335 | 484 | 822 |
| 2026-05-10 11:00 | 2.87 | 160 | 3420 (1950) | 45 (1956) | 266 | 53 | 71 | 95 | 106 | 174 | 290 | 335 | 484 | 822 |
| 2026-05-10 10:00 | 2.88 | 162 | 3420 (1950) | 45 (1956) | 266 | 53 | 71 | 95 | 106 | 174 | 290 | 335 | 484 | 822 |
| 2026-05-10 09:00 | 2.88 | 162 | 3420 (1950) | 45 (1956) | 266 | 53 | 71 | 95 | 106 | 174 | 290 | 335 | 484 | 822 |
| 2026-05-10 08:00 | 2.88 | 162 | 3420 (1950) | 45 (1956) | 266 | 53 | 71 | 95 | 106 | 174 | 290 | 335 | 484 | 822 |
| 2026-05-10 07:00 | 2.88 | 162 | 3420 (1950) | 45 (1956) | 266 | 53 | 71 | 95 | 106 | 174 | 290 | 335 | 484 | 822 |
| 2026-05-10 06:00 | 2.89 | 164 | 3420 (1950) | 45 (1956) | 266 | 53 | 71 | 95 | 106 | 174 | 290 | 335 | 484 | 822 |
| 2026-05-10 05:00 | 2.89 | 164 | 3420 (1950) | 45 (1956) | 266 | 53 | 71 | 95 | 106 | 174 | 290 | 335 | 484 | 822 |
| 2026-05-10 04:00 | 2.89 | 164 | 3420 (1950) | 45 (1956) | 266 | 53 | 71 | 95 | 106 | 174 | 290 | 335 | 484 | 822 |
| 2026-05-10 03:00 | 2.89 | 164 | 3420 (1950) | 45 (1956) | 266 | 53 | 71 | 95 | 106 | 174 | 290 | 335 | 484 | 822 |
| 2026-05-10 02:00 | 2.90 | 166 | 3420 (1950) | 45 (1956) | 266 | 53 | 71 | 95 | 106 | 174 | 290 | 335 | 484 | 822 |
| 2026-05-10 01:00 | 2.90 | 166 | 3420 (1950) | 45 (1956) | 266 | 53 | 71 | 95 | 106 | 174 | 290 | 335 | 484 | 822 |
| 2026-05-10 00:00 | 2.90 | 166 | 3420 (1950) | 45 (1956) | 266 | 53 | 71 | 95 | 106 | 174 | 290 | 335 | 484 | 822 |
| 2026-05-09 23:00 | 2.90 | 166 | 3420 (1950) | 45 (1956) | 266 | 53 | 71 | 95 | 106 | 174 | 290 | 335 | 484 | 822 |
| 2026-05-09 22:00 | 2.91 | 168 | 2220 (2002) | 44 (1956) | 265 | 53 | 62 | 84 | 100 | 160 | 308 | 330 | 488 | 728 |
| 2026-05-09 21:00 | 2.91 | 168 | 2220 (2002) | 44 (1956) | 265 | 53 | 62 | 84 | 100 | 160 | 308 | 330 | 488 | 728 |
| 2026-05-09 20:00 | 2.92 | 169 | 2220 (2002) | 44 (1956) | 265 | 53 | 62 | 84 | 100 | 160 | 308 | 330 | 488 | 728 |
| 2026-05-09 19:00 | 2.92 | 169 | 2220 (2002) | 44 (1956) | 265 | 53 | 62 | 84 | 100 | 160 | 308 | 330 | 488 | 728 |
| 2026-05-09 18:00 | 2.93 | 171 | 2220 (2002) | 44 (1956) | 265 | 53 | 62 | 84 | 100 | 160 | 308 | 330 | 488 | 728 |
| 2026-05-09 17:00 | 2.93 | 171 | 2220 (2002) | 44 (1956) | 265 | 53 | 62 | 84 | 100 | 160 | 308 | 330 | 488 | 728 |
| 2026-05-09 16:00 | 2.95 | 175 | 2220 (2002) | 44 (1956) | 265 | 53 | 62 | 84 | 100 | 160 | 308 | 330 | 488 | 728 |
| 2026-05-09 15:00 | 2.95 | 175 | 2220 (2002) | 44 (1956) | 265 | 53 | 62 | 84 | 100 | 160 | 308 | 330 | 488 | 728 |
| 2026-05-09 14:00 | 2.96 | 177 | 2220 (2002) | 44 (1956) | 265 | 53 | 62 | 84 | 100 | 160 | 308 | 330 | 488 | 728 |
| 2026-05-09 13:00 | 2.96 | 177 | 2220 (2002) | 44 (1956) | 265 | 53 | 62 | 84 | 100 | 160 | 308 | 330 | 488 | 728 |
| 2026-05-09 12:00 | 2.96 | 177 | 2220 (2002) | 44 (1956) | 265 | 53 | 62 | 84 | 100 | 160 | 308 | 330 | 488 | 728 |
| 2026-05-09 11:00 | 2.97 | 179 | 2220 (2002) | 44 (1956) | 265 | 53 | 62 | 84 | 100 | 160 | 308 | 330 | 488 | 728 |
| 2026-05-09 10:00 | 2.98 | 181 | 2220 (2002) | 44 (1956) | 265 | 53 | 62 | 84 | 100 | 160 | 308 | 330 | 488 | 728 |
| 2026-05-09 09:00 | 2.99 | 183 | 2220 (2002) | 44 (1956) | 265 | 53 | 62 | 84 | 100 | 160 | 308 | 330 | 488 | 728 |
| 2026-05-09 08:00 | 3.01 | 187 | 2220 (2002) | 44 (1956) | 265 | 53 | 62 | 84 | 100 | 160 | 308 | 330 | 488 | 728 |
| 2026-05-09 07:00 | 3.02 | 189 | 2220 (2002) | 44 (1956) | 265 | 53 | 62 | 84 | 100 | 160 | 308 | 330 | 488 | 728 |
| 2026-05-09 06:00 | 3.03 | 191 | 2220 (2002) | 44 (1956) | 265 | 53 | 62 | 84 | 100 | 160 | 308 | 330 | 488 | 728 |
| 2026-05-09 05:00 | 3.04 | 193 | 2220 (2002) | 44 (1956) | 265 | 53 | 62 | 84 | 100 | 160 | 308 | 330 | 488 | 728 |
| 2026-05-09 04:00 | 3.00 | 185 | 2220 (2002) | 44 (1956) | 265 | 53 | 62 | 84 | 100 | 160 | 308 | 330 | 488 | 728 |
| 2026-05-09 03:00 | 2.95 | 175 | 2220 (2002) | 44 (1956) | 265 | 53 | 62 | 84 | 100 | 160 | 308 | 330 | 488 | 728 |
| 2026-05-09 02:00 | 2.94 | 173 | 2220 (2002) | 44 (1956) | 265 | 53 | 62 | 84 | 100 | 160 | 308 | 330 | 488 | 728 |
| 2026-05-09 01:00 | 2.93 | 171 | 2220 (2002) | 44 (1956) | 265 | 53 | 62 | 84 | 100 | 160 | 308 | 330 | 488 | 728 |
| 2026-05-09 00:00 | 2.93 | 171 | 2220 (2002) | 44 (1956) | 265 | 53 | 62 | 84 | 100 | 160 | 308 | 330 | 488 | 728 |
| 2026-05-08 23:00 | 2.91 | 168 | 2220 (2002) | 44 (1956) | 265 | 53 | 62 | 84 | 100 | 160 | 308 | 330 | 488 | 728 |
| 2026-05-08 22:00 | 2.87 | 160 | 4570 (2002) | 44 (1956) | 375 | 56 | 62 | 90 | 97 | 150 | 331 | 357 | 601 | 1540 |
| 2026-05-08 21:00 | 2.86 | 158 | 4570 (2002) | 44 (1956) | 375 | 56 | 62 | 90 | 97 | 150 | 331 | 357 | 601 | 1540 |
| 2026-05-08 20:00 | 2.86 | 158 | 4570 (2002) | 44 (1956) | 375 | 56 | 62 | 90 | 97 | 150 | 331 | 357 | 601 | 1540 |
| 2026-05-08 19:00 | 2.86 | 158 | 4570 (2002) | 44 (1956) | 375 | 56 | 62 | 90 | 97 | 150 | 331 | 357 | 601 | 1540 |
| 2026-05-08 18:00 | 2.85 | 157 | 4570 (2002) | 44 (1956) | 375 | 56 | 62 | 90 | 97 | 150 | 331 | 357 | 601 | 1540 |
| 2026-05-08 17:00 | 2.86 | 158 | 4570 (2002) | 44 (1956) | 375 | 56 | 62 | 90 | 97 | 150 | 331 | 357 | 601 | 1540 |
| 2026-05-08 16:00 | 2.86 | 158 | 4570 (2002) | 44 (1956) | 375 | 56 | 62 | 90 | 97 | 150 | 331 | 357 | 601 | 1540 |
| 2026-05-08 15:00 | 2.86 | 158 | 4570 (2002) | 44 (1956) | 375 | 56 | 62 | 90 | 97 | 150 | 331 | 357 | 601 | 1540 |
| 2026-05-08 14:00 | 2.86 | 158 | 4570 (2002) | 44 (1956) | 375 | 56 | 62 | 90 | 97 | 150 | 331 | 357 | 601 | 1540 |
| 2026-05-08 13:00 | 2.87 | 160 | 4570 (2002) | 44 (1956) | 375 | 56 | 62 | 90 | 97 | 150 | 331 | 357 | 601 | 1540 |
| 2026-05-08 12:00 | 2.87 | 160 | 4570 (2002) | 44 (1956) | 375 | 56 | 62 | 90 | 97 | 150 | 331 | 357 | 601 | 1540 |
| 2026-05-08 11:00 | 2.86 | 158 | 4570 (2002) | 44 (1956) | 375 | 56 | 62 | 90 | 97 | 150 | 331 | 357 | 601 | 1540 |
| 2026-05-08 10:00 | 2.87 | 160 | 4570 (2002) | 44 (1956) | 375 | 56 | 62 | 90 | 97 | 150 | 331 | 357 | 601 | 1540 |
| 2026-05-08 09:00 | 2.87 | 160 | 4570 (2002) | 44 (1956) | 375 | 56 | 62 | 90 | 97 | 150 | 331 | 357 | 601 | 1540 |
| 2026-05-08 08:00 | 2.87 | 160 | 4570 (2002) | 44 (1956) | 375 | 56 | 62 | 90 | 97 | 150 | 331 | 357 | 601 | 1540 |
| 2026-05-08 07:00 | 2.87 | 160 | 4570 (2002) | 44 (1956) | 375 | 56 | 62 | 90 | 97 | 150 | 331 | 357 | 601 | 1540 |
| 2026-05-08 06:00 | 2.87 | 160 | 4570 (2002) | 44 (1956) | 375 | 56 | 62 | 90 | 97 | 150 | 331 | 357 | 601 | 1540 |
| 2026-05-08 05:00 | 2.87 | 160 | 4570 (2002) | 44 (1956) | 375 | 56 | 62 | 90 | 97 | 150 | 331 | 357 | 601 | 1540 |
| 2026-05-08 04:00 | 2.87 | 160 | 4570 (2002) | 44 (1956) | 375 | 56 | 62 | 90 | 97 | 150 | 331 | 357 | 601 | 1540 |
| 2026-05-08 03:00 | 2.88 | 162 | 4570 (2002) | 44 (1956) | 375 | 56 | 62 | 90 | 97 | 150 | 331 | 357 | 601 | 1540 |
| 2026-05-08 02:00 | 2.87 | 160 | 4570 (2002) | 44 (1956) | 375 | 56 | 62 | 90 | 97 | 150 | 331 | 357 | 601 | 1540 |
| 2026-05-08 01:00 | 2.87 | 160 | 4570 (2002) | 44 (1956) | 375 | 56 | 62 | 90 | 97 | 150 | 331 | 357 | 601 | 1540 |
| 2026-05-08 00:00 | 2.88 | 162 | 4570 (2002) | 44 (1956) | 375 | 56 | 62 | 90 | 97 | 150 | 331 | 357 | 601 | 1540 |
| 2026-05-07 23:00 | 2.88 | 162 | 4570 (2002) | 44 (1956) | 375 | 56 | 62 | 90 | 97 | 150 | 331 | 357 | 601 | 1540 |
| 2026-05-07 22:00 | 2.88 | 162 | 3960 (1961) | 48 (1981) | 317 | 55 | 62 | 96 | 101 | 160 | 338 | 391 | 663 | 1120 |
| 2026-05-07 21:00 | 2.88 | 162 | 3960 (1961) | 48 (1981) | 317 | 55 | 62 | 96 | 101 | 160 | 338 | 391 | 663 | 1120 |
| 2026-05-07 20:00 | 2.88 | 162 | 3960 (1961) | 48 (1981) | 317 | 55 | 62 | 96 | 101 | 160 | 338 | 391 | 663 | 1120 |
| 2026-05-07 19:00 | 2.89 | 164 | 3960 (1961) | 48 (1981) | 317 | 55 | 62 | 96 | 101 | 160 | 338 | 391 | 663 | 1120 |
| 2026-05-07 18:00 | 2.89 | 164 | 3960 (1961) | 48 (1981) | 317 | 55 | 62 | 96 | 101 | 160 | 338 | 391 | 663 | 1120 |
| 2026-05-07 17:00 | 2.90 | 166 | 3960 (1961) | 48 (1981) | 317 | 55 | 62 | 96 | 101 | 160 | 338 | 391 | 663 | 1120 |
| 2026-05-07 16:00 | 2.90 | 166 | 3960 (1961) | 48 (1981) | 317 | 55 | 62 | 96 | 101 | 160 | 338 | 391 | 663 | 1120 |
| 2026-05-07 15:00 | 2.91 | 168 | 3960 (1961) | 48 (1981) | 317 | 55 | 62 | 96 | 101 | 160 | 338 | 391 | 663 | 1120 |
| 2026-05-07 14:00 | 2.91 | 168 | 3960 (1961) | 48 (1981) | 317 | 55 | 62 | 96 | 101 | 160 | 338 | 391 | 663 | 1120 |
| 2026-05-07 13:00 | 2.92 | 169 | 3960 (1961) | 48 (1981) | 317 | 55 | 62 | 96 | 101 | 160 | 338 | 391 | 663 | 1120 |
| 2026-05-07 12:00 | 2.92 | 169 | 3960 (1961) | 48 (1981) | 317 | 55 | 62 | 96 | 101 | 160 | 338 | 391 | 663 | 1120 |
| 2026-05-07 11:00 | 2.92 | 169 | 3960 (1961) | 48 (1981) | 317 | 55 | 62 | 96 | 101 | 160 | 338 | 391 | 663 | 1120 |
| 2026-05-07 10:00 | 2.92 | 169 | 3960 (1961) | 48 (1981) | 317 | 55 | 62 | 96 | 101 | 160 | 338 | 391 | 663 | 1120 |
| 2026-05-07 09:00 | 2.92 | 169 | 3960 (1961) | 48 (1981) | 317 | 55 | 62 | 96 | 101 | 160 | 338 | 391 | 663 | 1120 |
| 2026-05-07 08:00 | 2.93 | 171 | 3960 (1961) | 48 (1981) | 317 | 55 | 62 | 96 | 101 | 160 | 338 | 391 | 663 | 1120 |
| 2026-05-07 07:00 | 2.93 | 171 | 3960 (1961) | 48 (1981) | 317 | 55 | 62 | 96 | 101 | 160 | 338 | 391 | 663 | 1120 |
| 2026-05-07 06:00 | 2.93 | 171 | 3960 (1961) | 48 (1981) | 317 | 55 | 62 | 96 | 101 | 160 | 338 | 391 | 663 | 1120 |
| 2026-05-07 05:00 | 2.93 | 171 | 3960 (1961) | 48 (1981) | 317 | 55 | 62 | 96 | 101 | 160 | 338 | 391 | 663 | 1120 |
| 2026-05-07 04:00 | 2.94 | 173 | 3960 (1961) | 48 (1981) | 317 | 55 | 62 | 96 | 101 | 160 | 338 | 391 | 663 | 1120 |
| 2026-05-07 03:00 | 2.94 | 173 | 3960 (1961) | 48 (1981) | 317 | 55 | 62 | 96 | 101 | 160 | 338 | 391 | 663 | 1120 |
| 2026-05-07 02:00 | 2.94 | 173 | 3960 (1961) | 48 (1981) | 317 | 55 | 62 | 96 | 101 | 160 | 338 | 391 | 663 | 1120 |
| 2026-05-07 01:00 | 2.94 | 173 | 3960 (1961) | 48 (1981) | 317 | 55 | 62 | 96 | 101 | 160 | 338 | 391 | 663 | 1120 |
| 2026-05-07 00:00 | 2.94 | 173 | 3960 (1961) | 48 (1981) | 317 | 55 | 62 | 96 | 101 | 160 | 338 | 391 | 663 | 1120 |
| 2026-05-06 23:00 | 2.95 | 175 | 3960 (1961) | 48 (1981) | 317 | 55 | 62 | 96 | 101 | 160 | 338 | 391 | 663 | 1120 |
| 2026-05-06 22:00 | 2.95 | 175 | 7420 (1929) | 39 (1956) | 369 | 55 | 63 | 86 | 103 | 162 | 272 | 350 | 489 | 1300 |
| 2026-05-06 21:00 | 2.95 | 175 | 7420 (1929) | 39 (1956) | 369 | 55 | 63 | 86 | 103 | 162 | 272 | 350 | 489 | 1300 |
| 2026-05-06 20:00 | 2.96 | 177 | 7420 (1929) | 39 (1956) | 369 | 55 | 63 | 86 | 103 | 162 | 272 | 350 | 489 | 1300 |
| 2026-05-06 19:00 | 2.96 | 177 | 7420 (1929) | 39 (1956) | 369 | 55 | 63 | 86 | 103 | 162 | 272 | 350 | 489 | 1300 |
| 2026-05-06 18:00 | 2.97 | 179 | 7420 (1929) | 39 (1956) | 369 | 55 | 63 | 86 | 103 | 162 | 272 | 350 | 489 | 1300 |
| 2026-05-06 17:00 | 2.97 | 179 | 7420 (1929) | 39 (1956) | 369 | 55 | 63 | 86 | 103 | 162 | 272 | 350 | 489 | 1300 |
| 2026-05-06 16:00 | 2.98 | 181 | 7420 (1929) | 39 (1956) | 369 | 55 | 63 | 86 | 103 | 162 | 272 | 350 | 489 | 1300 |
| 2026-05-06 15:00 | 2.99 | 183 | 7420 (1929) | 39 (1956) | 369 | 55 | 63 | 86 | 103 | 162 | 272 | 350 | 489 | 1300 |
| 2026-05-06 14:00 | 2.99 | 183 | 7420 (1929) | 39 (1956) | 369 | 55 | 63 | 86 | 103 | 162 | 272 | 350 | 489 | 1300 |
| 2026-05-06 13:00 | 3.00 | 185 | 7420 (1929) | 39 (1956) | 369 | 55 | 63 | 86 | 103 | 162 | 272 | 350 | 489 | 1300 |
| 2026-05-06 12:00 | 3.00 | 185 | 7420 (1929) | 39 (1956) | 369 | 55 | 63 | 86 | 103 | 162 | 272 | 350 | 489 | 1300 |
| 2026-05-06 11:00 | 3.01 | 187 | 7420 (1929) | 39 (1956) | 369 | 55 | 63 | 86 | 103 | 162 | 272 | 350 | 489 | 1300 |
| 2026-05-06 10:00 | 3.02 | 189 | 7420 (1929) | 39 (1956) | 369 | 55 | 63 | 86 | 103 | 162 | 272 | 350 | 489 | 1300 |
| 2026-05-06 09:00 | 3.02 | 189 | 7420 (1929) | 39 (1956) | 369 | 55 | 63 | 86 | 103 | 162 | 272 | 350 | 489 | 1300 |
| 2026-05-06 08:00 | 3.03 | 191 | 7420 (1929) | 39 (1956) | 369 | 55 | 63 | 86 | 103 | 162 | 272 | 350 | 489 | 1300 |
| 2026-05-06 07:00 | 3.04 | 193 | 7420 (1929) | 39 (1956) | 369 | 55 | 63 | 86 | 103 | 162 | 272 | 350 | 489 | 1300 |
| 2026-05-06 06:00 | 3.05 | 195 | 7420 (1929) | 39 (1956) | 369 | 55 | 63 | 86 | 103 | 162 | 272 | 350 | 489 | 1300 |
| 2026-05-06 05:00 | 3.06 | 197 | 7420 (1929) | 39 (1956) | 369 | 55 | 63 | 86 | 103 | 162 | 272 | 350 | 489 | 1300 |
| 2026-05-06 04:00 | 3.06 | 197 | 7420 (1929) | 39 (1956) | 369 | 55 | 63 | 86 | 103 | 162 | 272 | 350 | 489 | 1300 |
| 2026-05-06 03:00 | 3.05 | 195 | 7420 (1929) | 39 (1956) | 369 | 55 | 63 | 86 | 103 | 162 | 272 | 350 | 489 | 1300 |
| 2026-05-06 02:00 | 3.03 | 191 | 7420 (1929) | 39 (1956) | 369 | 55 | 63 | 86 | 103 | 162 | 272 | 350 | 489 | 1300 |
| 2026-05-06 01:00 | 3.02 | 189 | 7420 (1929) | 39 (1956) | 369 | 55 | 63 | 86 | 103 | 162 | 272 | 350 | 489 | 1300 |
| 2026-05-06 00:00 | 3.01 | 187 | 7420 (1929) | 39 (1956) | 369 | 55 | 63 | 86 | 103 | 162 | 272 | 350 | 489 | 1300 |
| 2026-05-05 23:00 | 3.00 | 185 | 7420 (1929) | 39 (1956) | 369 | 55 | 63 | 86 | 103 | 162 | 272 | 350 | 489 | 1300 |
| 2026-05-05 22:00 | 2.99 | 183 | 3800 (2022) | 40 (1956) | 295 | 55 | 65 | 88 | 103 | 164 | 262 | 291 | 486 | 748 |
| 2026-05-05 21:00 | 2.98 | 181 | 3800 (2022) | 40 (1956) | 295 | 55 | 65 | 88 | 103 | 164 | 262 | 291 | 486 | 748 |
| 2026-05-05 20:00 | 2.98 | 181 | 3800 (2022) | 40 (1956) | 295 | 55 | 65 | 88 | 103 | 164 | 262 | 291 | 486 | 748 |
| 2026-05-05 19:00 | 2.97 | 179 | 3800 (2022) | 40 (1956) | 295 | 55 | 65 | 88 | 103 | 164 | 262 | 291 | 486 | 748 |
| 2026-05-05 18:00 | 2.97 | 179 | 3800 (2022) | 40 (1956) | 295 | 55 | 65 | 88 | 103 | 164 | 262 | 291 | 486 | 748 |
| 2026-05-05 17:00 | 2.97 | 179 | 3800 (2022) | 40 (1956) | 295 | 55 | 65 | 88 | 103 | 164 | 262 | 291 | 486 | 748 |
| 2026-05-05 16:00 | 2.97 | 179 | 3800 (2022) | 40 (1956) | 295 | 55 | 65 | 88 | 103 | 164 | 262 | 291 | 486 | 748 |
| 2026-05-05 15:00 | 2.97 | 179 | 3800 (2022) | 40 (1956) | 295 | 55 | 65 | 88 | 103 | 164 | 262 | 291 | 486 | 748 |
| 2026-05-05 14:00 | 2.98 | 181 | 3800 (2022) | 40 (1956) | 295 | 55 | 65 | 88 | 103 | 164 | 262 | 291 | 486 | 748 |
| 2026-05-05 13:00 | 2.99 | 183 | 3800 (2022) | 40 (1956) | 295 | 55 | 65 | 88 | 103 | 164 | 262 | 291 | 486 | 748 |
| 2026-05-05 12:00 | 2.99 | 183 | 3800 (2022) | 40 (1956) | 295 | 55 | 65 | 88 | 103 | 164 | 262 | 291 | 486 | 748 |
| 2026-05-05 11:00 | 2.99 | 183 | 3800 (2022) | 40 (1956) | 295 | 55 | 65 | 88 | 103 | 164 | 262 | 291 | 486 | 748 |
| 2026-05-05 10:00 | 3.00 | 185 | 3800 (2022) | 40 (1956) | 295 | 55 | 65 | 88 | 103 | 164 | 262 | 291 | 486 | 748 |
| 2026-05-05 09:00 | 3.00 | 185 | 3800 (2022) | 40 (1956) | 295 | 55 | 65 | 88 | 103 | 164 | 262 | 291 | 486 | 748 |
| 2026-05-05 08:00 | 3.01 | 187 | 3800 (2022) | 40 (1956) | 295 | 55 | 65 | 88 | 103 | 164 | 262 | 291 | 486 | 748 |
| 2026-05-05 07:00 | 3.00 | 185 | 3800 (2022) | 40 (1956) | 295 | 55 | 65 | 88 | 103 | 164 | 262 | 291 | 486 | 748 |
| 2026-05-05 06:00 | 2.98 | 181 | 3800 (2022) | 40 (1956) | 295 | 55 | 65 | 88 | 103 | 164 | 262 | 291 | 486 | 748 |
| 2026-05-05 05:00 | 2.97 | 179 | 3800 (2022) | 40 (1956) | 295 | 55 | 65 | 88 | 103 | 164 | 262 | 291 | 486 | 748 |
| 2026-05-05 04:00 | 2.98 | 181 | 3800 (2022) | 40 (1956) | 295 | 55 | 65 | 88 | 103 | 164 | 262 | 291 | 486 | 748 |
| 2026-05-05 03:00 | 2.98 | 181 | 3800 (2022) | 40 (1956) | 295 | 55 | 65 | 88 | 103 | 164 | 262 | 291 | 486 | 748 |
| 2026-05-05 02:00 | 2.98 | 181 | 3800 (2022) | 40 (1956) | 295 | 55 | 65 | 88 | 103 | 164 | 262 | 291 | 486 | 748 |
| 2026-05-05 01:00 | 2.98 | 181 | 3800 (2022) | 40 (1956) | 295 | 55 | 65 | 88 | 103 | 164 | 262 | 291 | 486 | 748 |
| 2026-05-05 00:00 | 2.98 | 181 | 3800 (2022) | 40 (1956) | 295 | 55 | 65 | 88 | 103 | 164 | 262 | 291 | 486 | 748 |
| 2026-05-04 23:00 | 2.99 | 183 | 3800 (2022) | 40 (1956) | 295 | 55 | 65 | 88 | 103 | 164 | 262 | 291 | 486 | 748 |
| 2026-05-04 22:00 | 2.99 | 183 | 6590 (2017) | 43 (1956) | 296 | 56 | 67 | 91 | 106 | 168 | 284 | 309 | 486 | 754 |
| 2026-05-04 21:00 | 2.99 | 183 | 6590 (2017) | 43 (1956) | 296 | 56 | 67 | 91 | 106 | 168 | 284 | 309 | 486 | 754 |
| 2026-05-04 20:00 | 2.99 | 183 | 6590 (2017) | 43 (1956) | 296 | 56 | 67 | 91 | 106 | 168 | 284 | 309 | 486 | 754 |
| 2026-05-04 19:00 | 2.99 | 183 | 6590 (2017) | 43 (1956) | 296 | 56 | 67 | 91 | 106 | 168 | 284 | 309 | 486 | 754 |
| 2026-05-04 18:00 | 3.00 | 185 | 6590 (2017) | 43 (1956) | 296 | 56 | 67 | 91 | 106 | 168 | 284 | 309 | 486 | 754 |
| 2026-05-04 17:00 | 3.00 | 185 | 6590 (2017) | 43 (1956) | 296 | 56 | 67 | 91 | 106 | 168 | 284 | 309 | 486 | 754 |
| 2026-05-04 16:00 | 3.01 | 187 | 6590 (2017) | 43 (1956) | 296 | 56 | 67 | 91 | 106 | 168 | 284 | 309 | 486 | 754 |
| 2026-05-04 15:00 | 3.02 | 189 | 6590 (2017) | 43 (1956) | 296 | 56 | 67 | 91 | 106 | 168 | 284 | 309 | 486 | 754 |
| 2026-05-04 14:00 | 3.02 | 189 | 6590 (2017) | 43 (1956) | 296 | 56 | 67 | 91 | 106 | 168 | 284 | 309 | 486 | 754 |
| 2026-05-04 13:00 | 3.03 | 191 | 6590 (2017) | 43 (1956) | 296 | 56 | 67 | 91 | 106 | 168 | 284 | 309 | 486 | 754 |
| 2026-05-04 12:00 | 3.03 | 191 | 6590 (2017) | 43 (1956) | 296 | 56 | 67 | 91 | 106 | 168 | 284 | 309 | 486 | 754 |
| 2026-05-04 11:00 | 3.03 | 191 | 6590 (2017) | 43 (1956) | 296 | 56 | 67 | 91 | 106 | 168 | 284 | 309 | 486 | 754 |
| 2026-05-04 10:00 | 3.03 | 191 | 6590 (2017) | 43 (1956) | 296 | 56 | 67 | 91 | 106 | 168 | 284 | 309 | 486 | 754 |
| 2026-05-04 09:00 | 3.03 | 191 | 6590 (2017) | 43 (1956) | 296 | 56 | 67 | 91 | 106 | 168 | 284 | 309 | 486 | 754 |
| 2026-05-04 08:00 | 3.04 | 193 | 6590 (2017) | 43 (1956) | 296 | 56 | 67 | 91 | 106 | 168 | 284 | 309 | 486 | 754 |
| 2026-05-04 07:00 | 3.04 | 193 | 6590 (2017) | 43 (1956) | 296 | 56 | 67 | 91 | 106 | 168 | 284 | 309 | 486 | 754 |
| 2026-05-04 06:00 | 3.04 | 193 | 6590 (2017) | 43 (1956) | 296 | 56 | 67 | 91 | 106 | 168 | 284 | 309 | 486 | 754 |
| 2026-05-04 05:00 | 3.04 | 193 | 6590 (2017) | 43 (1956) | 296 | 56 | 67 | 91 | 106 | 168 | 284 | 309 | 486 | 754 |
| 2026-05-04 04:00 | 3.04 | 193 | 6590 (2017) | 43 (1956) | 296 | 56 | 67 | 91 | 106 | 168 | 284 | 309 | 486 | 754 |
| 2026-05-04 03:00 | 3.04 | 193 | 6590 (2017) | 43 (1956) | 296 | 56 | 67 | 91 | 106 | 168 | 284 | 309 | 486 | 754 |
| 2026-05-04 02:00 | 3.04 | 193 | 6590 (2017) | 43 (1956) | 296 | 56 | 67 | 91 | 106 | 168 | 284 | 309 | 486 | 754 |
| 2026-05-04 01:00 | 3.05 | 195 | 6590 (2017) | 43 (1956) | 296 | 56 | 67 | 91 | 106 | 168 | 284 | 309 | 486 | 754 |
| 2026-05-04 00:00 | 3.05 | 195 | 6590 (2017) | 43 (1956) | 296 | 56 | 67 | 91 | 106 | 168 | 284 | 309 | 486 | 754 |
| 2026-05-03 23:00 | 3.05 | 195 | 6590 (2017) | 43 (1956) | 296 | 56 | 67 | 91 | 106 | 168 | 284 | 309 | 486 | 754 |
| 2026-05-03 22:00 | 3.05 | 195 | 4650 (1990) | 44 (1981) | 294 | 56 | 75 | 99 | 112 | 181 | 316 | 383 | 560 | 755 |
| 2026-05-03 21:00 | 3.06 | 197 | 4650 (1990) | 44 (1981) | 294 | 56 | 75 | 99 | 112 | 181 | 316 | 383 | 560 | 755 |
| 2026-05-03 20:00 | 3.06 | 197 | 4650 (1990) | 44 (1981) | 294 | 56 | 75 | 99 | 112 | 181 | 316 | 383 | 560 | 755 |
| 2026-05-03 19:00 | 3.06 | 197 | 4650 (1990) | 44 (1981) | 294 | 56 | 75 | 99 | 112 | 181 | 316 | 383 | 560 | 755 |
| 2026-05-03 18:00 | 3.06 | 197 | 4650 (1990) | 44 (1981) | 294 | 56 | 75 | 99 | 112 | 181 | 316 | 383 | 560 | 755 |
| 2026-05-03 17:00 | 3.07 | 199 | 4650 (1990) | 44 (1981) | 294 | 56 | 75 | 99 | 112 | 181 | 316 | 383 | 560 | 755 |
| 2026-05-03 16:00 | 3.08 | 201 | 4650 (1990) | 44 (1981) | 294 | 56 | 75 | 99 | 112 | 181 | 316 | 383 | 560 | 755 |
| 2026-05-03 15:00 | 3.09 | 203 | 4650 (1990) | 44 (1981) | 294 | 56 | 75 | 99 | 112 | 181 | 316 | 383 | 560 | 755 |
| 2026-05-03 14:00 | 3.09 | 203 | 4650 (1990) | 44 (1981) | 294 | 56 | 75 | 99 | 112 | 181 | 316 | 383 | 560 | 755 |
| 2026-05-03 13:00 | 3.09 | 203 | 4650 (1990) | 44 (1981) | 294 | 56 | 75 | 99 | 112 | 181 | 316 | 383 | 560 | 755 |
| 2026-05-03 12:00 | 3.10 | 205 | 4650 (1990) | 44 (1981) | 294 | 56 | 75 | 99 | 112 | 181 | 316 | 383 | 560 | 755 |
| 2026-05-03 11:00 | 3.10 | 205 | 4650 (1990) | 44 (1981) | 294 | 56 | 75 | 99 | 112 | 181 | 316 | 383 | 560 | 755 |
| 2026-05-03 10:00 | 3.10 | 205 | 4650 (1990) | 44 (1981) | 294 | 56 | 75 | 99 | 112 | 181 | 316 | 383 | 560 | 755 |
| 2026-05-03 09:00 | 3.11 | 207 | 4650 (1990) | 44 (1981) | 294 | 56 | 75 | 99 | 112 | 181 | 316 | 383 | 560 | 755 |
| 2026-05-03 08:00 | 3.11 | 207 | 4650 (1990) | 44 (1981) | 294 | 56 | 75 | 99 | 112 | 181 | 316 | 383 | 560 | 755 |
| 2026-05-03 07:00 | 3.11 | 207 | 4650 (1990) | 44 (1981) | 294 | 56 | 75 | 99 | 112 | 181 | 316 | 383 | 560 | 755 |
| 2026-05-03 06:00 | 3.11 | 207 | 4650 (1990) | 44 (1981) | 294 | 56 | 75 | 99 | 112 | 181 | 316 | 383 | 560 | 755 |
| 2026-05-03 05:00 | 3.12 | 209 | 4650 (1990) | 44 (1981) | 294 | 56 | 75 | 99 | 112 | 181 | 316 | 383 | 560 | 755 |
| 2026-05-03 04:00 | 3.13 | 211 | 4650 (1990) | 44 (1981) | 294 | 56 | 75 | 99 | 112 | 181 | 316 | 383 | 560 | 755 |
| 2026-05-03 03:00 | 3.12 | 209 | 4650 (1990) | 44 (1981) | 294 | 56 | 75 | 99 | 112 | 181 | 316 | 383 | 560 | 755 |
| 2026-05-03 02:00 | 3.13 | 211 | 4650 (1990) | 44 (1981) | 294 | 56 | 75 | 99 | 112 | 181 | 316 | 383 | 560 | 755 |
| 2026-05-03 01:00 | 3.13 | 211 | 4650 (1990) | 44 (1981) | 294 | 56 | 75 | 99 | 112 | 181 | 316 | 383 | 560 | 755 |
| 2026-05-03 00:00 | 3.14 | 213 | 4650 (1990) | 44 (1981) | 294 | 56 | 75 | 99 | 112 | 181 | 316 | 383 | 560 | 755 |
| 2026-05-02 23:00 | 3.14 | 213 | 4650 (1990) | 44 (1981) | 294 | 56 | 75 | 99 | 112 | 181 | 316 | 383 | 560 | 755 |
| 2026-05-02 22:00 | 3.14 | 213 | 3200 (1937) | 46 (1981) | 303 | 57 | 80 | 103 | 127 | 169 | 303 | 350 | 690 | 1070 |
| 2026-05-02 21:00 | 3.15 | 216 | 3200 (1937) | 46 (1981) | 303 | 57 | 80 | 103 | 127 | 169 | 303 | 350 | 690 | 1070 |
| 2026-05-02 20:00 | 3.15 | 216 | 3200 (1937) | 46 (1981) | 303 | 57 | 80 | 103 | 127 | 169 | 303 | 350 | 690 | 1070 |
| 2026-05-02 19:00 | 3.16 | 218 | 3200 (1937) | 46 (1981) | 303 | 57 | 80 | 103 | 127 | 169 | 303 | 350 | 690 | 1070 |
| 2026-05-02 18:00 | 3.16 | 218 | 3200 (1937) | 46 (1981) | 303 | 57 | 80 | 103 | 127 | 169 | 303 | 350 | 690 | 1070 |
| 2026-05-02 17:00 | 3.18 | 222 | 3200 (1937) | 46 (1981) | 303 | 57 | 80 | 103 | 127 | 169 | 303 | 350 | 690 | 1070 |
| 2026-05-02 16:00 | 3.18 | 222 | 3200 (1937) | 46 (1981) | 303 | 57 | 80 | 103 | 127 | 169 | 303 | 350 | 690 | 1070 |
| 2026-05-02 15:00 | 3.19 | 224 | 3200 (1937) | 46 (1981) | 303 | 57 | 80 | 103 | 127 | 169 | 303 | 350 | 690 | 1070 |
| 2026-05-02 14:00 | 3.20 | 226 | 3200 (1937) | 46 (1981) | 303 | 57 | 80 | 103 | 127 | 169 | 303 | 350 | 690 | 1070 |
| 2026-05-02 13:00 | 3.20 | 226 | 3200 (1937) | 46 (1981) | 303 | 57 | 80 | 103 | 127 | 169 | 303 | 350 | 690 | 1070 |
| 2026-05-02 12:00 | 3.21 | 229 | 3200 (1937) | 46 (1981) | 303 | 57 | 80 | 103 | 127 | 169 | 303 | 350 | 690 | 1070 |
| 2026-05-02 11:00 | 3.21 | 229 | 3200 (1937) | 46 (1981) | 303 | 57 | 80 | 103 | 127 | 169 | 303 | 350 | 690 | 1070 |
| 2026-05-02 10:00 | 3.22 | 231 | 3200 (1937) | 46 (1981) | 303 | 57 | 80 | 103 | 127 | 169 | 303 | 350 | 690 | 1070 |
| 2026-05-02 09:00 | 3.22 | 231 | 3200 (1937) | 46 (1981) | 303 | 57 | 80 | 103 | 127 | 169 | 303 | 350 | 690 | 1070 |
| 2026-05-02 08:00 | 3.23 | 233 | 3200 (1937) | 46 (1981) | 303 | 57 | 80 | 103 | 127 | 169 | 303 | 350 | 690 | 1070 |
| 2026-05-02 07:00 | 3.23 | 233 | 3200 (1937) | 46 (1981) | 303 | 57 | 80 | 103 | 127 | 169 | 303 | 350 | 690 | 1070 |
| 2026-05-02 06:00 | 3.24 | 235 | 3200 (1937) | 46 (1981) | 303 | 57 | 80 | 103 | 127 | 169 | 303 | 350 | 690 | 1070 |
| 2026-05-02 05:00 | 3.24 | 235 | 3200 (1937) | 46 (1981) | 303 | 57 | 80 | 103 | 127 | 169 | 303 | 350 | 690 | 1070 |
| 2026-05-02 04:00 | 3.25 | 238 | 3200 (1937) | 46 (1981) | 303 | 57 | 80 | 103 | 127 | 169 | 303 | 350 | 690 | 1070 |
| 2026-05-02 03:00 | 3.25 | 238 | 3200 (1937) | 46 (1981) | 303 | 57 | 80 | 103 | 127 | 169 | 303 | 350 | 690 | 1070 |
| 2026-05-02 02:00 | 3.26 | 240 | 3200 (1937) | 46 (1981) | 303 | 57 | 80 | 103 | 127 | 169 | 303 | 350 | 690 | 1070 |
| 2026-05-02 01:00 | 3.26 | 240 | 3200 (1937) | 46 (1981) | 303 | 57 | 80 | 103 | 127 | 169 | 303 | 350 | 690 | 1070 |
| 2026-05-02 00:00 | 3.26 | 240 | 3200 (1937) | 46 (1981) | 303 | 57 | 80 | 103 | 127 | 169 | 303 | 350 | 690 | 1070 |
| 2026-05-01 23:00 | 3.27 | 242 | 3200 (1937) | 46 (1981) | 303 | 57 | 80 | 103 | 127 | 169 | 303 | 350 | 690 | 1070 |
| 2026-05-01 22:00 | 3.27 | 242 | 4300 (2019) | 45 (1954) | 362 | 53 | 75 | 99 | 115 | 172 | 342 | 369 | 612 | 1630 |
| 2026-05-01 21:00 | 3.28 | 244 | 4300 (2019) | 45 (1954) | 362 | 53 | 75 | 99 | 115 | 172 | 342 | 369 | 612 | 1630 |
| 2026-05-01 20:00 | 3.28 | 244 | 4300 (2019) | 45 (1954) | 362 | 53 | 75 | 99 | 115 | 172 | 342 | 369 | 612 | 1630 |
| 2026-05-01 19:00 | 3.29 | 247 | 4300 (2019) | 45 (1954) | 362 | 53 | 75 | 99 | 115 | 172 | 342 | 369 | 612 | 1630 |
| 2026-05-01 18:00 | 3.30 | 249 | 4300 (2019) | 45 (1954) | 362 | 53 | 75 | 99 | 115 | 172 | 342 | 369 | 612 | 1630 |
| 2026-05-01 17:00 | 3.31 | 252 | 4300 (2019) | 45 (1954) | 362 | 53 | 75 | 99 | 115 | 172 | 342 | 369 | 612 | 1630 |
| 2026-05-01 16:00 | 3.32 | 254 | 4300 (2019) | 45 (1954) | 362 | 53 | 75 | 99 | 115 | 172 | 342 | 369 | 612 | 1630 |
| 2026-05-01 15:00 | 3.33 | 256 | 4300 (2019) | 45 (1954) | 362 | 53 | 75 | 99 | 115 | 172 | 342 | 369 | 612 | 1630 |
| 2026-05-01 14:00 | 3.34 | 259 | 4300 (2019) | 45 (1954) | 362 | 53 | 75 | 99 | 115 | 172 | 342 | 369 | 612 | 1630 |
| 2026-05-01 13:00 | 3.34 | 259 | 4300 (2019) | 45 (1954) | 362 | 53 | 75 | 99 | 115 | 172 | 342 | 369 | 612 | 1630 |
| 2026-05-01 12:00 | 3.36 | 263 | 4300 (2019) | 45 (1954) | 362 | 53 | 75 | 99 | 115 | 172 | 342 | 369 | 612 | 1630 |
| 2026-05-01 11:00 | 3.36 | 263 | 4300 (2019) | 45 (1954) | 362 | 53 | 75 | 99 | 115 | 172 | 342 | 369 | 612 | 1630 |
| 2026-05-01 10:00 | 3.37 | 266 | 4300 (2019) | 45 (1954) | 362 | 53 | 75 | 99 | 115 | 172 | 342 | 369 | 612 | 1630 |
| 2026-05-01 09:00 | 3.38 | 268 | 4300 (2019) | 45 (1954) | 362 | 53 | 75 | 99 | 115 | 172 | 342 | 369 | 612 | 1630 |
| 2026-05-01 08:00 | 3.38 | 268 | 4300 (2019) | 45 (1954) | 362 | 53 | 75 | 99 | 115 | 172 | 342 | 369 | 612 | 1630 |
| 2026-05-01 07:00 | 3.39 | 271 | 4300 (2019) | 45 (1954) | 362 | 53 | 75 | 99 | 115 | 172 | 342 | 369 | 612 | 1630 |
| 2026-05-01 06:00 | 3.39 | 271 | 4300 (2019) | 45 (1954) | 362 | 53 | 75 | 99 | 115 | 172 | 342 | 369 | 612 | 1630 |
| 2026-05-01 05:00 | 3.40 | 273 | 4300 (2019) | 45 (1954) | 362 | 53 | 75 | 99 | 115 | 172 | 342 | 369 | 612 | 1630 |
| 2026-05-01 04:00 | 3.41 | 276 | 4300 (2019) | 45 (1954) | 362 | 53 | 75 | 99 | 115 | 172 | 342 | 369 | 612 | 1630 |
| 2026-05-01 03:00 | 3.42 | 278 | 4300 (2019) | 45 (1954) | 362 | 53 | 75 | 99 | 115 | 172 | 342 | 369 | 612 | 1630 |
| 2026-05-01 02:00 | 3.42 | 278 | 4300 (2019) | 45 (1954) | 362 | 53 | 75 | 99 | 115 | 172 | 342 | 369 | 612 | 1630 |
| 2026-05-01 01:00 | 3.43 | 281 | 4300 (2019) | 45 (1954) | 362 | 53 | 75 | 99 | 115 | 172 | 342 | 369 | 612 | 1630 |
| 2026-05-01 00:00 | 3.44 | 283 | 4300 (2019) | 45 (1954) | 362 | 53 | 75 | 99 | 115 | 172 | 342 | 369 | 612 | 1630 |
| 2026-04-30 23:00 | 3.44 | 283 | 4300 (2019) | 45 (1954) | 362 | 53 | 75 | 99 | 115 | 172 | 342 | 369 | 612 | 1630 |
| 2026-04-30 22:00 | 3.45 | 286 | 13700 (2017) | 44 (1954) | 441 | 59 | 76 | 103 | 115 | 170 | 301 | 411 | 606 | 1020 |
| 2026-04-30 21:00 | 3.46 | 288 | 13700 (2017) | 44 (1954) | 441 | 59 | 76 | 103 | 115 | 170 | 301 | 411 | 606 | 1020 |
| 2026-04-30 20:00 | 3.47 | 291 | 13700 (2017) | 44 (1954) | 441 | 59 | 76 | 103 | 115 | 170 | 301 | 411 | 606 | 1020 |
| 2026-04-30 19:00 | 3.47 | 291 | 13700 (2017) | 44 (1954) | 441 | 59 | 76 | 103 | 115 | 170 | 301 | 411 | 606 | 1020 |
| 2026-04-30 18:00 | 3.48 | 293 | 13700 (2017) | 44 (1954) | 441 | 59 | 76 | 103 | 115 | 170 | 301 | 411 | 606 | 1020 |
| 2026-04-30 17:00 | 3.50 | 299 | 13700 (2017) | 44 (1954) | 441 | 59 | 76 | 103 | 115 | 170 | 301 | 411 | 606 | 1020 |
| 2026-04-30 16:00 | 3.51 | 301 | 13700 (2017) | 44 (1954) | 441 | 59 | 76 | 103 | 115 | 170 | 301 | 411 | 606 | 1020 |
| 2026-04-30 15:00 | 3.53 | 306 | 13700 (2017) | 44 (1954) | 441 | 59 | 76 | 103 | 115 | 170 | 301 | 411 | 606 | 1020 |
| 2026-04-30 14:00 | 3.54 | 309 | 13700 (2017) | 44 (1954) | 441 | 59 | 76 | 103 | 115 | 170 | 301 | 411 | 606 | 1020 |
| 2026-04-30 13:00 | 3.54 | 309 | 13700 (2017) | 44 (1954) | 441 | 59 | 76 | 103 | 115 | 170 | 301 | 411 | 606 | 1020 |
| 2026-04-30 12:00 | 3.56 | 314 | 13700 (2017) | 44 (1954) | 441 | 59 | 76 | 103 | 115 | 170 | 301 | 411 | 606 | 1020 |
| 2026-04-30 11:00 | 3.57 | 317 | 13700 (2017) | 44 (1954) | 441 | 59 | 76 | 103 | 115 | 170 | 301 | 411 | 606 | 1020 |
| 2026-04-30 10:00 | 3.57 | 317 | 13700 (2017) | 44 (1954) | 441 | 59 | 76 | 103 | 115 | 170 | 301 | 411 | 606 | 1020 |
| 2026-04-30 09:00 | 3.58 | 320 | 13700 (2017) | 44 (1954) | 441 | 59 | 76 | 103 | 115 | 170 | 301 | 411 | 606 | 1020 |
| 2026-04-30 08:00 | 3.59 | 323 | 13700 (2017) | 44 (1954) | 441 | 59 | 76 | 103 | 115 | 170 | 301 | 411 | 606 | 1020 |
| 2026-04-30 07:00 | 3.60 | 325 | 13700 (2017) | 44 (1954) | 441 | 59 | 76 | 103 | 115 | 170 | 301 | 411 | 606 | 1020 |
| 2026-04-30 06:00 | 3.62 | 331 | 13700 (2017) | 44 (1954) | 441 | 59 | 76 | 103 | 115 | 170 | 301 | 411 | 606 | 1020 |
| 2026-04-30 05:00 | 3.62 | 331 | 13700 (2017) | 44 (1954) | 441 | 59 | 76 | 103 | 115 | 170 | 301 | 411 | 606 | 1020 |
| 2026-04-30 04:00 | 3.63 | 334 | 13700 (2017) | 44 (1954) | 441 | 59 | 76 | 103 | 115 | 170 | 301 | 411 | 606 | 1020 |
| 2026-04-30 03:00 | 3.64 | 336 | 13700 (2017) | 44 (1954) | 441 | 59 | 76 | 103 | 115 | 170 | 301 | 411 | 606 | 1020 |
| 2026-04-30 02:00 | 3.66 | 342 | 13700 (2017) | 44 (1954) | 441 | 59 | 76 | 103 | 115 | 170 | 301 | 411 | 606 | 1020 |
| 2026-04-30 01:00 | 3.66 | 342 | 13700 (2017) | 44 (1954) | 441 | 59 | 76 | 103 | 115 | 170 | 301 | 411 | 606 | 1020 |
| 2026-04-30 00:00 | 3.67 | 345 | 13700 (2017) | 44 (1954) | 441 | 59 | 76 | 103 | 115 | 170 | 301 | 411 | 606 | 1020 |
| 2026-04-29 23:00 | 3.69 | 350 | 13700 (2017) | 44 (1954) | 441 | 59 | 76 | 103 | 115 | 170 | 301 | 411 | 606 | 1020 |
| 2026-04-29 22:00 | 3.70 | 353 | 6210 (2017) | 43 (1954) | 383 | 57 | 80 | 107 | 110 | 173 | 289 | 326 | 551 | 1850 |
| 2026-04-29 21:00 | 3.72 | 359 | 6210 (2017) | 43 (1954) | 383 | 57 | 80 | 107 | 110 | 173 | 289 | 326 | 551 | 1850 |
| 2026-04-29 20:00 | 3.73 | 362 | 6210 (2017) | 43 (1954) | 383 | 57 | 80 | 107 | 110 | 173 | 289 | 326 | 551 | 1850 |
| 2026-04-29 19:00 | 3.75 | 368 | 6210 (2017) | 43 (1954) | 383 | 57 | 80 | 107 | 110 | 173 | 289 | 326 | 551 | 1850 |
| 2026-04-29 18:00 | 3.76 | 371 | 6210 (2017) | 43 (1954) | 383 | 57 | 80 | 107 | 110 | 173 | 289 | 326 | 551 | 1850 |
| 2026-04-29 17:00 | 3.79 | 380 | 6210 (2017) | 43 (1954) | 383 | 57 | 80 | 107 | 110 | 173 | 289 | 326 | 551 | 1850 |
| 2026-04-29 16:00 | 3.81 | 386 | 6210 (2017) | 43 (1954) | 383 | 57 | 80 | 107 | 110 | 173 | 289 | 326 | 551 | 1850 |
| 2026-04-29 15:00 | 3.83 | 392 | 6210 (2017) | 43 (1954) | 383 | 57 | 80 | 107 | 110 | 173 | 289 | 326 | 551 | 1850 |
| 2026-04-29 14:00 | 3.85 | 398 | 6210 (2017) | 43 (1954) | 383 | 57 | 80 | 107 | 110 | 173 | 289 | 326 | 551 | 1850 |
| 2026-04-29 13:00 | 3.87 | 404 | 6210 (2017) | 43 (1954) | 383 | 57 | 80 | 107 | 110 | 173 | 289 | 326 | 551 | 1850 |
| 2026-04-29 12:00 | 3.90 | 414 | 6210 (2017) | 43 (1954) | 383 | 57 | 80 | 107 | 110 | 173 | 289 | 326 | 551 | 1850 |
| 2026-04-29 11:00 | 3.92 | 420 | 6210 (2017) | 43 (1954) | 383 | 57 | 80 | 107 | 110 | 173 | 289 | 326 | 551 | 1850 |
| 2026-04-29 10:00 | 3.94 | 426 | 6210 (2017) | 43 (1954) | 383 | 57 | 80 | 107 | 110 | 173 | 289 | 326 | 551 | 1850 |
| 2026-04-29 09:00 | 3.96 | 433 | 6210 (2017) | 43 (1954) | 383 | 57 | 80 | 107 | 110 | 173 | 289 | 326 | 551 | 1850 |
| 2026-04-29 08:00 | 3.99 | 442 | 6210 (2017) | 43 (1954) | 383 | 57 | 80 | 107 | 110 | 173 | 289 | 326 | 551 | 1850 |
| 2026-04-29 07:00 | 4.01 | 449 | 6210 (2017) | 43 (1954) | 383 | 57 | 80 | 107 | 110 | 173 | 289 | 326 | 551 | 1850 |
| 2026-04-29 06:00 | 4.04 | 459 | 6210 (2017) | 43 (1954) | 383 | 57 | 80 | 107 | 110 | 173 | 289 | 326 | 551 | 1850 |
| 2026-04-29 05:00 | 4.07 | 469 | 6210 (2017) | 43 (1954) | 383 | 57 | 80 | 107 | 110 | 173 | 289 | 326 | 551 | 1850 |
| 2026-04-29 04:00 | 4.10 | 479 | 6210 (2017) | 43 (1954) | 383 | 57 | 80 | 107 | 110 | 173 | 289 | 326 | 551 | 1850 |
| 2026-04-29 03:00 | 4.14 | 493 | 6210 (2017) | 43 (1954) | 383 | 57 | 80 | 107 | 110 | 173 | 289 | 326 | 551 | 1850 |
| 2026-04-29 02:00 | 4.17 | 504 | 6210 (2017) | 43 (1954) | 383 | 57 | 80 | 107 | 110 | 173 | 289 | 326 | 551 | 1850 |
| 2026-04-29 01:00 | 4.22 | 521 | 6210 (2017) | 43 (1954) | 383 | 57 | 80 | 107 | 110 | 173 | 289 | 326 | 551 | 1850 |
| 2026-04-29 00:00 | 4.30 | 551 | 6210 (2017) | 43 (1954) | 383 | 57 | 80 | 107 | 110 | 173 | 289 | 326 | 551 | 1850 |
| 2026-04-28 23:00 | 4.39 | 585 | 6210 (2017) | 43 (1954) | 383 | 57 | 80 | 107 | 110 | 173 | 289 | 326 | 551 | 1850 |
| 2026-04-28 22:00 | 4.49 | 624 | 5090 (1994) | 32 (1956) | 299 | 54 | 78 | 106 | 113 | 172 | 287 | 324 | 466 | 781 |
| 2026-04-28 21:00 | 4.41 | 592 | 5090 (1994) | 32 (1956) | 299 | 54 | 78 | 106 | 113 | 172 | 287 | 324 | 466 | 781 |
| 2026-04-28 20:00 | 4.19 | 511 | 5090 (1994) | 32 (1956) | 299 | 54 | 78 | 106 | 113 | 172 | 287 | 324 | 466 | 781 |
| 2026-04-28 19:00 | 3.90 | 414 | 5090 (1994) | 32 (1956) | 299 | 54 | 78 | 106 | 113 | 172 | 287 | 324 | 466 | 781 |
| 2026-04-28 18:00 | 3.78 | 377 | 5090 (1994) | 32 (1956) | 299 | 54 | 78 | 106 | 113 | 172 | 287 | 324 | 466 | 781 |
| 2026-04-28 17:00 | 3.71 | 356 | 5090 (1994) | 32 (1956) | 299 | 54 | 78 | 106 | 113 | 172 | 287 | 324 | 466 | 781 |
| 2026-04-28 16:00 | 3.68 | 348 | 5090 (1994) | 32 (1956) | 299 | 54 | 78 | 106 | 113 | 172 | 287 | 324 | 466 | 781 |
| 2026-04-28 15:00 | 3.67 | 345 | 5090 (1994) | 32 (1956) | 299 | 54 | 78 | 106 | 113 | 172 | 287 | 324 | 466 | 781 |
| 2026-04-28 14:00 | 3.67 | 345 | 5090 (1994) | 32 (1956) | 299 | 54 | 78 | 106 | 113 | 172 | 287 | 324 | 466 | 781 |
| 2026-04-28 13:00 | 3.68 | 348 | 5090 (1994) | 32 (1956) | 299 | 54 | 78 | 106 | 113 | 172 | 287 | 324 | 466 | 781 |
| 2026-04-28 12:00 | 3.70 | 353 | 5090 (1994) | 32 (1956) | 299 | 54 | 78 | 106 | 113 | 172 | 287 | 324 | 466 | 781 |
| 2026-04-28 11:00 | 3.72 | 359 | 5090 (1994) | 32 (1956) | 299 | 54 | 78 | 106 | 113 | 172 | 287 | 324 | 466 | 781 |
| 2026-04-28 10:00 | 3.74 | 365 | 5090 (1994) | 32 (1956) | 299 | 54 | 78 | 106 | 113 | 172 | 287 | 324 | 466 | 781 |
| 2026-04-28 09:00 | 3.75 | 368 | 5090 (1994) | 32 (1956) | 299 | 54 | 78 | 106 | 113 | 172 | 287 | 324 | 466 | 781 |
| 2026-04-28 08:00 | 3.78 | 377 | 5090 (1994) | 32 (1956) | 299 | 54 | 78 | 106 | 113 | 172 | 287 | 324 | 466 | 781 |
| 2026-04-28 07:00 | 3.79 | 380 | 5090 (1994) | 32 (1956) | 299 | 54 | 78 | 106 | 113 | 172 | 287 | 324 | 466 | 781 |
| 2026-04-28 06:00 | 3.82 | 389 | 5090 (1994) | 32 (1956) | 299 | 54 | 78 | 106 | 113 | 172 | 287 | 324 | 466 | 781 |
| 2026-04-28 05:00 | 3.85 | 398 | 5090 (1994) | 32 (1956) | 299 | 54 | 78 | 106 | 113 | 172 | 287 | 324 | 466 | 781 |
| 2026-04-28 04:00 | 3.88 | 407 | 5090 (1994) | 32 (1956) | 299 | 54 | 78 | 106 | 113 | 172 | 287 | 324 | 466 | 781 |
| 2026-04-28 03:00 | 3.91 | 417 | 5090 (1994) | 32 (1956) | 299 | 54 | 78 | 106 | 113 | 172 | 287 | 324 | 466 | 781 |
| 2026-04-28 02:00 | 3.93 | 423 | 5090 (1994) | 32 (1956) | 299 | 54 | 78 | 106 | 113 | 172 | 287 | 324 | 466 | 781 |
| 2026-04-28 01:00 | 3.97 | 436 | 5090 (1994) | 32 (1956) | 299 | 54 | 78 | 106 | 113 | 172 | 287 | 324 | 466 | 781 |
| 2026-04-28 00:00 | 4.00 | 446 | 5090 (1994) | 32 (1956) | 299 | 54 | 78 | 106 | 113 | 172 | 287 | 324 | 466 | 781 |
| 2026-04-27 23:00 | 4.04 | 459 | 5090 (1994) | 32 (1956) | 299 | 54 | 78 | 106 | 113 | 172 | 287 | 324 | 466 | 781 |
| 2026-04-27 22:00 | 4.08 | 472 | 1370 (1957) | 34 (1956) | 243 | 58 | 69 | 109 | 116 | 168 | 277 | 328 | 485 | 642 |
| 2026-04-27 21:00 | 4.10 | 479 | 1370 (1957) | 34 (1956) | 243 | 58 | 69 | 109 | 116 | 168 | 277 | 328 | 485 | 642 |
| 2026-04-27 20:00 | 4.14 | 493 | 1370 (1957) | 34 (1956) | 243 | 58 | 69 | 109 | 116 | 168 | 277 | 328 | 485 | 642 |
| 2026-04-27 19:00 | 4.20 | 514 | 1370 (1957) | 34 (1956) | 243 | 58 | 69 | 109 | 116 | 168 | 277 | 328 | 485 | 642 |
| 2026-04-27 18:00 | 4.25 | 532 | 1370 (1957) | 34 (1956) | 243 | 58 | 69 | 109 | 116 | 168 | 277 | 328 | 485 | 642 |
| 2026-04-27 17:00 | 4.31 | 554 | 1370 (1957) | 34 (1956) | 243 | 58 | 69 | 109 | 116 | 168 | 277 | 328 | 485 | 642 |
| 2026-04-27 16:00 | 4.39 | 585 | 1370 (1957) | 34 (1956) | 243 | 58 | 69 | 109 | 116 | 168 | 277 | 328 | 485 | 642 |
| 2026-04-27 15:00 | 4.47 | 616 | 1370 (1957) | 34 (1956) | 243 | 58 | 69 | 109 | 116 | 168 | 277 | 328 | 485 | 642 |
| 2026-04-27 14:00 | 4.55 | 648 | 1370 (1957) | 34 (1956) | 243 | 58 | 69 | 109 | 116 | 168 | 277 | 328 | 485 | 642 |
| 2026-04-27 13:00 | 4.65 | 690 | 1370 (1957) | 34 (1956) | 243 | 58 | 69 | 109 | 116 | 168 | 277 | 328 | 485 | 642 |
| 2026-04-27 12:00 | 4.75 | 733 | 1370 (1957) | 34 (1956) | 243 | 58 | 69 | 109 | 116 | 168 | 277 | 328 | 485 | 642 |
| 2026-04-27 11:00 | 4.89 | 796 | 1370 (1957) | 34 (1956) | 243 | 58 | 69 | 109 | 116 | 168 | 277 | 328 | 485 | 642 |
| 2026-04-27 10:00 | 5.07 | 881 | 1370 (1957) | 34 (1956) | 243 | 58 | 69 | 109 | 116 | 168 | 277 | 328 | 485 | 642 |
| 2026-04-27 09:00 | 5.30 | 998 | 1370 (1957) | 34 (1956) | 243 | 58 | 69 | 109 | 116 | 168 | 277 | 328 | 485 | 642 |
| 2026-04-27 08:00 | 5.64 | 1190 | 1370 (1957) | 34 (1956) | 243 | 58 | 69 | 109 | 116 | 168 | 277 | 328 | 485 | 642 |
| 2026-04-27 07:00 | 6.22 | 1550 | 1370 (1957) | 34 (1956) | 243 | 58 | 69 | 109 | 116 | 168 | 277 | 328 | 485 | 642 |
| 2026-04-27 06:00 | 7.29 | 2380 | 1370 (1957) | 34 (1956) | 243 | 58 | 69 | 109 | 116 | 168 | 277 | 328 | 485 | 642 |
| 2026-04-27 05:00 | 8.24 | 3290 | 1370 (1957) | 34 (1956) | 243 | 58 | 69 | 109 | 116 | 168 | 277 | 328 | 485 | 642 |
| 2026-04-27 04:00 | 8.52 | 3590 | 1370 (1957) | 34 (1956) | 243 | 58 | 69 | 109 | 116 | 168 | 277 | 328 | 485 | 642 |
| 2026-04-27 03:00 | 6.22 | 1550 | 1370 (1957) | 34 (1956) | 243 | 58 | 69 | 109 | 116 | 168 | 277 | 328 | 485 | 642 |
| 2026-04-27 02:00 | 3.43 | 281 | 1370 (1957) | 34 (1956) | 243 | 58 | 69 | 109 | 116 | 168 | 277 | 328 | 485 | 642 |
| 2026-04-27 01:00 | 3.22 | 231 | 1370 (1957) | 34 (1956) | 243 | 58 | 69 | 109 | 116 | 168 | 277 | 328 | 485 | 642 |
| 2026-04-27 00:00 | 3.13 | 211 | 1370 (1957) | 34 (1956) | 243 | 58 | 69 | 109 | 116 | 168 | 277 | 328 | 485 | 642 |
| 2026-04-26 23:00 | 3.13 | 211 | 1370 (1957) | 34 (1956) | 243 | 58 | 69 | 109 | 116 | 168 | 277 | 328 | 485 | 642 |
| 2026-04-26 22:00 | 3.13 | 211 | 4170 (2011) | 36 (1956) | 279 | 55 | 65 | 106 | 118 | 174 | 299 | 367 | 481 | 708 |
| 2026-04-26 21:00 | 3.14 | 213 | 4170 (2011) | 36 (1956) | 279 | 55 | 65 | 106 | 118 | 174 | 299 | 367 | 481 | 708 |
| 2026-04-26 20:00 | 3.14 | 213 | 4170 (2011) | 36 (1956) | 279 | 55 | 65 | 106 | 118 | 174 | 299 | 367 | 481 | 708 |
| 2026-04-26 19:00 | 3.14 | 213 | 4170 (2011) | 36 (1956) | 279 | 55 | 65 | 106 | 118 | 174 | 299 | 367 | 481 | 708 |
| 2026-04-26 18:00 | 3.15 | 216 | 4170 (2011) | 36 (1956) | 279 | 55 | 65 | 106 | 118 | 174 | 299 | 367 | 481 | 708 |
| 2026-04-26 17:00 | 3.16 | 218 | 4170 (2011) | 36 (1956) | 279 | 55 | 65 | 106 | 118 | 174 | 299 | 367 | 481 | 708 |
| 2026-04-26 16:00 | 3.17 | 220 | 4170 (2011) | 36 (1956) | 279 | 55 | 65 | 106 | 118 | 174 | 299 | 367 | 481 | 708 |
| 2026-04-26 15:00 | 3.17 | 220 | 4170 (2011) | 36 (1956) | 279 | 55 | 65 | 106 | 118 | 174 | 299 | 367 | 481 | 708 |
| 2026-04-26 14:00 | 3.18 | 222 | 4170 (2011) | 36 (1956) | 279 | 55 | 65 | 106 | 118 | 174 | 299 | 367 | 481 | 708 |
| 2026-04-26 13:00 | 3.19 | 224 | 4170 (2011) | 36 (1956) | 279 | 55 | 65 | 106 | 118 | 174 | 299 | 367 | 481 | 708 |
| 2026-04-26 12:00 | 3.19 | 224 | 4170 (2011) | 36 (1956) | 279 | 55 | 65 | 106 | 118 | 174 | 299 | 367 | 481 | 708 |
| 2026-04-26 11:00 | 3.20 | 226 | 4170 (2011) | 36 (1956) | 279 | 55 | 65 | 106 | 118 | 174 | 299 | 367 | 481 | 708 |
| 2026-04-26 10:00 | 3.21 | 229 | 4170 (2011) | 36 (1956) | 279 | 55 | 65 | 106 | 118 | 174 | 299 | 367 | 481 | 708 |
| 2026-04-26 09:00 | 3.21 | 229 | 4170 (2011) | 36 (1956) | 279 | 55 | 65 | 106 | 118 | 174 | 299 | 367 | 481 | 708 |
| 2026-04-26 08:00 | 3.22 | 231 | 4170 (2011) | 36 (1956) | 279 | 55 | 65 | 106 | 118 | 174 | 299 | 367 | 481 | 708 |
| 2026-04-26 07:00 | 3.22 | 231 | 4170 (2011) | 36 (1956) | 279 | 55 | 65 | 106 | 118 | 174 | 299 | 367 | 481 | 708 |
| 2026-04-26 06:00 | 3.23 | 233 | 4170 (2011) | 36 (1956) | 279 | 55 | 65 | 106 | 118 | 174 | 299 | 367 | 481 | 708 |
| 2026-04-26 05:00 | 3.23 | 233 | 4170 (2011) | 36 (1956) | 279 | 55 | 65 | 106 | 118 | 174 | 299 | 367 | 481 | 708 |
| 2026-04-26 04:00 | 3.24 | 235 | 4170 (2011) | 36 (1956) | 279 | 55 | 65 | 106 | 118 | 174 | 299 | 367 | 481 | 708 |
| 2026-04-26 03:00 | 3.25 | 238 | 4170 (2011) | 36 (1956) | 279 | 55 | 65 | 106 | 118 | 174 | 299 | 367 | 481 | 708 |
| 2026-04-26 02:00 | 3.25 | 238 | 4170 (2011) | 36 (1956) | 279 | 55 | 65 | 106 | 118 | 174 | 299 | 367 | 481 | 708 |
| 2026-04-26 01:00 | 3.26 | 240 | 4170 (2011) | 36 (1956) | 279 | 55 | 65 | 106 | 118 | 174 | 299 | 367 | 481 | 708 |
| 2026-04-26 00:00 | 3.26 | 240 | 4170 (2011) | 36 (1956) | 279 | 55 | 65 | 106 | 118 | 174 | 299 | 367 | 481 | 708 |
| 2026-04-25 23:00 | 3.27 | 242 | 4170 (2011) | 36 (1956) | 279 | 55 | 65 | 106 | 118 | 174 | 299 | 367 | 481 | 708 |
| 2026-04-25 22:00 | 3.28 | 244 | 6010 (1947) | 39 (1956) | 315 | 55 | 69 | 107 | 114 | 182 | 281 | 335 | 485 | 778 |
| 2026-04-25 21:00 | 3.28 | 244 | 6010 (1947) | 39 (1956) | 315 | 55 | 69 | 107 | 114 | 182 | 281 | 335 | 485 | 778 |
| 2026-04-25 20:00 | 3.29 | 247 | 6010 (1947) | 39 (1956) | 315 | 55 | 69 | 107 | 114 | 182 | 281 | 335 | 485 | 778 |
| 2026-04-25 19:00 | 3.30 | 249 | 6010 (1947) | 39 (1956) | 315 | 55 | 69 | 107 | 114 | 182 | 281 | 335 | 485 | 778 |
| 2026-04-25 18:00 | 3.31 | 252 | 6010 (1947) | 39 (1956) | 315 | 55 | 69 | 107 | 114 | 182 | 281 | 335 | 485 | 778 |
| 2026-04-25 17:00 | 3.32 | 254 | 6010 (1947) | 39 (1956) | 315 | 55 | 69 | 107 | 114 | 182 | 281 | 335 | 485 | 778 |
| 2026-04-25 16:00 | 3.33 | 256 | 6010 (1947) | 39 (1956) | 315 | 55 | 69 | 107 | 114 | 182 | 281 | 335 | 485 | 778 |
| 2026-04-25 15:00 | 3.34 | 259 | 6010 (1947) | 39 (1956) | 315 | 55 | 69 | 107 | 114 | 182 | 281 | 335 | 485 | 778 |
| 2026-04-25 14:00 | 3.35 | 261 | 6010 (1947) | 39 (1956) | 315 | 55 | 69 | 107 | 114 | 182 | 281 | 335 | 485 | 778 |
| 2026-04-25 13:00 | 3.36 | 263 | 6010 (1947) | 39 (1956) | 315 | 55 | 69 | 107 | 114 | 182 | 281 | 335 | 485 | 778 |
| 2026-04-25 12:00 | 3.37 | 266 | 6010 (1947) | 39 (1956) | 315 | 55 | 69 | 107 | 114 | 182 | 281 | 335 | 485 | 778 |
| 2026-04-25 11:00 | 3.38 | 268 | 6010 (1947) | 39 (1956) | 315 | 55 | 69 | 107 | 114 | 182 | 281 | 335 | 485 | 778 |
| 2026-04-25 10:00 | 3.39 | 271 | 6010 (1947) | 39 (1956) | 315 | 55 | 69 | 107 | 114 | 182 | 281 | 335 | 485 | 778 |
| 2026-04-25 09:00 | 3.40 | 273 | 6010 (1947) | 39 (1956) | 315 | 55 | 69 | 107 | 114 | 182 | 281 | 335 | 485 | 778 |
| 2026-04-25 08:00 | 3.41 | 276 | 6010 (1947) | 39 (1956) | 315 | 55 | 69 | 107 | 114 | 182 | 281 | 335 | 485 | 778 |
| 2026-04-25 07:00 | 3.42 | 278 | 6010 (1947) | 39 (1956) | 315 | 55 | 69 | 107 | 114 | 182 | 281 | 335 | 485 | 778 |
| 2026-04-25 06:00 | 3.43 | 281 | 6010 (1947) | 39 (1956) | 315 | 55 | 69 | 107 | 114 | 182 | 281 | 335 | 485 | 778 |
| 2026-04-25 05:00 | 3.44 | 283 | 6010 (1947) | 39 (1956) | 315 | 55 | 69 | 107 | 114 | 182 | 281 | 335 | 485 | 778 |
| 2026-04-25 04:00 | 3.45 | 286 | 6010 (1947) | 39 (1956) | 315 | 55 | 69 | 107 | 114 | 182 | 281 | 335 | 485 | 778 |
| 2026-04-25 03:00 | 3.46 | 288 | 6010 (1947) | 39 (1956) | 315 | 55 | 69 | 107 | 114 | 182 | 281 | 335 | 485 | 778 |
| 2026-04-25 02:00 | 3.48 | 293 | 6010 (1947) | 39 (1956) | 315 | 55 | 69 | 107 | 114 | 182 | 281 | 335 | 485 | 778 |
| 2026-04-25 01:00 | 3.49 | 296 | 6010 (1947) | 39 (1956) | 315 | 55 | 69 | 107 | 114 | 182 | 281 | 335 | 485 | 778 |
| 2026-04-25 00:00 | 3.51 | 301 | 6010 (1947) | 39 (1956) | 315 | 55 | 69 | 107 | 114 | 182 | 281 | 335 | 485 | 778 |
| 2026-04-24 23:00 | 3.53 | 306 | 6010 (1947) | 39 (1956) | 315 | 55 | 69 | 107 | 114 | 182 | 281 | 335 | 485 | 778 |
| 2026-04-24 22:00 | 3.55 | 312 | 4040 (1947) | 36 (1956) | 293 | 60 | 70 | 105 | 110 | 176 | 292 | 335 | 551 | 1010 |
| 2026-04-24 21:00 | 3.57 | 317 | 4040 (1947) | 36 (1956) | 293 | 60 | 70 | 105 | 110 | 176 | 292 | 335 | 551 | 1010 |
| 2026-04-24 20:00 | 3.59 | 323 | 4040 (1947) | 36 (1956) | 293 | 60 | 70 | 105 | 110 | 176 | 292 | 335 | 551 | 1010 |
| 2026-04-24 19:00 | 3.62 | 331 | 4040 (1947) | 36 (1956) | 293 | 60 | 70 | 105 | 110 | 176 | 292 | 335 | 551 | 1010 |
| 2026-04-24 18:00 | 3.65 | 339 | 4040 (1947) | 36 (1956) | 293 | 60 | 70 | 105 | 110 | 176 | 292 | 335 | 551 | 1010 |
| 2026-04-24 17:00 | 3.69 | 350 | 4040 (1947) | 36 (1956) | 293 | 60 | 70 | 105 | 110 | 176 | 292 | 335 | 551 | 1010 |
| 2026-04-24 16:00 | 3.72 | 359 | 4040 (1947) | 36 (1956) | 293 | 60 | 70 | 105 | 110 | 176 | 292 | 335 | 551 | 1010 |
| 2026-04-24 15:00 | 3.78 | 377 | 4040 (1947) | 36 (1956) | 293 | 60 | 70 | 105 | 110 | 176 | 292 | 335 | 551 | 1010 |
| 2026-04-24 14:00 | 3.82 | 389 | 4040 (1947) | 36 (1956) | 293 | 60 | 70 | 105 | 110 | 176 | 292 | 335 | 551 | 1010 |
| 2026-04-24 13:00 | 3.86 | 401 | 4040 (1947) | 36 (1956) | 293 | 60 | 70 | 105 | 110 | 176 | 292 | 335 | 551 | 1010 |
| 2026-04-24 12:00 | 3.86 | 416 | 4040 (1947) | 36 (1956) | 293 | 60 | 70 | 105 | 110 | 176 | 292 | 335 | 551 | 1010 |
| 2026-04-24 11:00 | 3.74 | 379 | 4040 (1947) | 36 (1956) | 293 | 60 | 70 | 105 | 110 | 176 | 292 | 335 | 551 | 1010 |
| 2026-04-24 10:00 | 3.39 | 283 | 4040 (1947) | 36 (1956) | 293 | 60 | 70 | 105 | 110 | 176 | 292 | 335 | 551 | 1010 |
| 2026-04-24 09:00 | 3.26 | 251 | 4040 (1947) | 36 (1956) | 293 | 60 | 70 | 105 | 110 | 176 | 292 | 335 | 551 | 1010 |
| 2026-04-24 08:00 | 3.21 | 240 | 4040 (1947) | 36 (1956) | 293 | 60 | 70 | 105 | 110 | 176 | 292 | 335 | 551 | 1010 |
| 2026-04-24 07:00 | 3.17 | 231 | 4040 (1947) | 36 (1956) | 293 | 60 | 70 | 105 | 110 | 176 | 292 | 335 | 551 | 1010 |
| 2026-04-24 06:00 | 3.13 | 222 | 4040 (1947) | 36 (1956) | 293 | 60 | 70 | 105 | 110 | 176 | 292 | 335 | 551 | 1010 |
| 2026-04-24 05:00 | 3.09 | 213 | 4040 (1947) | 36 (1956) | 293 | 60 | 70 | 105 | 110 | 176 | 292 | 335 | 551 | 1010 |
| 2026-04-24 04:00 | 3.06 | 207 | 4040 (1947) | 36 (1956) | 293 | 60 | 70 | 105 | 110 | 176 | 292 | 335 | 551 | 1010 |
| 2026-04-24 03:00 | 3.04 | 203 | 4040 (1947) | 36 (1956) | 293 | 60 | 70 | 105 | 110 | 176 | 292 | 335 | 551 | 1010 |
| 2026-04-24 02:00 | 3.05 | 205 | 4040 (1947) | 36 (1956) | 293 | 60 | 70 | 105 | 110 | 176 | 292 | 335 | 551 | 1010 |
| 2026-04-24 01:00 | 3.05 | 205 | 4040 (1947) | 36 (1956) | 293 | 60 | 70 | 105 | 110 | 176 | 292 | 335 | 551 | 1010 |
| 2026-04-24 00:00 | 3.06 | 207 | 4040 (1947) | 36 (1956) | 293 | 60 | 70 | 105 | 110 | 176 | 292 | 335 | 551 | 1010 |
| 2026-04-23 23:00 | 3.06 | 207 | 4040 (1947) | 36 (1956) | 293 | 60 | 70 | 105 | 110 | 176 | 292 | 335 | 551 | 1010 |
| 2026-04-23 22:00 | 3.06 | 207 | 4000 (1973) | 35 (1956) | 300 | 58 | 72 | 103 | 112 | 178 | 317 | 365 | 454 | 765 |
| 2026-04-23 21:00 | 3.06 | 207 | 4000 (1973) | 35 (1956) | 300 | 58 | 72 | 103 | 112 | 178 | 317 | 365 | 454 | 765 |
| 2026-04-23 20:00 | 3.07 | 209 | 4000 (1973) | 35 (1956) | 300 | 58 | 72 | 103 | 112 | 178 | 317 | 365 | 454 | 765 |
| 2026-04-23 19:00 | 3.07 | 209 | 4000 (1973) | 35 (1956) | 300 | 58 | 72 | 103 | 112 | 178 | 317 | 365 | 454 | 765 |
| 2026-04-23 18:00 | 3.08 | 211 | 4000 (1973) | 35 (1956) | 300 | 58 | 72 | 103 | 112 | 178 | 317 | 365 | 454 | 765 |
| 2026-04-23 17:00 | 3.08 | 211 | 4000 (1973) | 35 (1956) | 300 | 58 | 72 | 103 | 112 | 178 | 317 | 365 | 454 | 765 |
| 2026-04-23 16:00 | 3.09 | 213 | 4000 (1973) | 35 (1956) | 300 | 58 | 72 | 103 | 112 | 178 | 317 | 365 | 454 | 765 |
| 2026-04-23 15:00 | 3.09 | 213 | 4000 (1973) | 35 (1956) | 300 | 58 | 72 | 103 | 112 | 178 | 317 | 365 | 454 | 765 |
| 2026-04-23 14:00 | 3.10 | 216 | 4000 (1973) | 35 (1956) | 300 | 58 | 72 | 103 | 112 | 178 | 317 | 365 | 454 | 765 |
| 2026-04-23 13:00 | 3.10 | 216 | 4000 (1973) | 35 (1956) | 300 | 58 | 72 | 103 | 112 | 178 | 317 | 365 | 454 | 765 |
| 2026-04-23 12:00 | 3.11 | 218 | 4000 (1973) | 35 (1956) | 300 | 58 | 72 | 103 | 112 | 178 | 317 | 365 | 454 | 765 |
| 2026-04-23 11:00 | 3.11 | 218 | 4000 (1973) | 35 (1956) | 300 | 58 | 72 | 103 | 112 | 178 | 317 | 365 | 454 | 765 |
| 2026-04-23 10:00 | 3.11 | 218 | 4000 (1973) | 35 (1956) | 300 | 58 | 72 | 103 | 112 | 178 | 317 | 365 | 454 | 765 |
| 2026-04-23 09:00 | 3.12 | 220 | 4000 (1973) | 35 (1956) | 300 | 58 | 72 | 103 | 112 | 178 | 317 | 365 | 454 | 765 |
| 2026-04-23 08:00 | 3.12 | 220 | 4000 (1973) | 35 (1956) | 300 | 58 | 72 | 103 | 112 | 178 | 317 | 365 | 454 | 765 |
| 2026-04-23 07:00 | 3.12 | 220 | 4000 (1973) | 35 (1956) | 300 | 58 | 72 | 103 | 112 | 178 | 317 | 365 | 454 | 765 |
| 2026-04-23 06:00 | 3.13 | 222 | 4000 (1973) | 35 (1956) | 300 | 58 | 72 | 103 | 112 | 178 | 317 | 365 | 454 | 765 |
| 2026-04-23 05:00 | 3.13 | 222 | 4000 (1973) | 35 (1956) | 300 | 58 | 72 | 103 | 112 | 178 | 317 | 365 | 454 | 765 |
| 2026-04-23 04:00 | 3.14 | 224 | 4000 (1973) | 35 (1956) | 300 | 58 | 72 | 103 | 112 | 178 | 317 | 365 | 454 | 765 |
| 2026-04-23 03:00 | 3.14 | 224 | 4000 (1973) | 35 (1956) | 300 | 58 | 72 | 103 | 112 | 178 | 317 | 365 | 454 | 765 |
| 2026-04-23 02:00 | 3.14 | 224 | 4000 (1973) | 35 (1956) | 300 | 58 | 72 | 103 | 112 | 178 | 317 | 365 | 454 | 765 |
| 2026-04-23 01:00 | 3.14 | 224 | 4000 (1973) | 35 (1956) | 300 | 58 | 72 | 103 | 112 | 178 | 317 | 365 | 454 | 765 |
| 2026-04-23 00:00 | 3.15 | 226 | 4000 (1973) | 35 (1956) | 300 | 58 | 72 | 103 | 112 | 178 | 317 | 365 | 454 | 765 |
| 2026-04-22 23:00 | 3.15 | 226 | 4000 (1973) | 35 (1956) | 300 | 58 | 72 | 103 | 112 | 178 | 317 | 365 | 454 | 765 |
| 2026-04-22 22:00 | 3.16 | 229 | 3250 (1973) | 36 (1956) | 263 | 58 | 76 | 99 | 110 | 169 | 309 | 385 | 537 | 603 |
| 2026-04-22 21:00 | 3.16 | 229 | 3250 (1973) | 36 (1956) | 263 | 58 | 76 | 99 | 110 | 169 | 309 | 385 | 537 | 603 |
| 2026-04-22 20:00 | 3.16 | 229 | 3250 (1973) | 36 (1956) | 263 | 58 | 76 | 99 | 110 | 169 | 309 | 385 | 537 | 603 |
| 2026-04-22 19:00 | 3.17 | 231 | 3250 (1973) | 36 (1956) | 263 | 58 | 76 | 99 | 110 | 169 | 309 | 385 | 537 | 603 |
| 2026-04-22 18:00 | 3.18 | 233 | 3250 (1973) | 36 (1956) | 263 | 58 | 76 | 99 | 110 | 169 | 309 | 385 | 537 | 603 |
| 2026-04-22 17:00 | 3.18 | 233 | 3250 (1973) | 36 (1956) | 263 | 58 | 76 | 99 | 110 | 169 | 309 | 385 | 537 | 603 |
| 2026-04-22 16:00 | 3.19 | 235 | 3250 (1973) | 36 (1956) | 263 | 58 | 76 | 99 | 110 | 169 | 309 | 385 | 537 | 603 |
| 2026-04-22 15:00 | 3.19 | 235 | 3250 (1973) | 36 (1956) | 263 | 58 | 76 | 99 | 110 | 169 | 309 | 385 | 537 | 603 |
| 2026-04-22 14:00 | 3.20 | 238 | 3250 (1973) | 36 (1956) | 263 | 58 | 76 | 99 | 110 | 169 | 309 | 385 | 537 | 603 |
| 2026-04-22 13:00 | 3.21 | 240 | 3250 (1973) | 36 (1956) | 263 | 58 | 76 | 99 | 110 | 169 | 309 | 385 | 537 | 603 |
| 2026-04-22 12:00 | 3.21 | 240 | 3250 (1973) | 36 (1956) | 263 | 58 | 76 | 99 | 110 | 169 | 309 | 385 | 537 | 603 |
| 2026-04-22 11:00 | 3.21 | 240 | 3250 (1973) | 36 (1956) | 263 | 58 | 76 | 99 | 110 | 169 | 309 | 385 | 537 | 603 |
| 2026-04-22 10:00 | 3.22 | 242 | 3250 (1973) | 36 (1956) | 263 | 58 | 76 | 99 | 110 | 169 | 309 | 385 | 537 | 603 |
| 2026-04-22 09:00 | 3.22 | 242 | 3250 (1973) | 36 (1956) | 263 | 58 | 76 | 99 | 110 | 169 | 309 | 385 | 537 | 603 |
| 2026-04-22 08:00 | 3.23 | 244 | 3250 (1973) | 36 (1956) | 263 | 58 | 76 | 99 | 110 | 169 | 309 | 385 | 537 | 603 |
| 2026-04-22 07:00 | 3.23 | 244 | 3250 (1973) | 36 (1956) | 263 | 58 | 76 | 99 | 110 | 169 | 309 | 385 | 537 | 603 |
| 2026-04-22 06:00 | 3.24 | 247 | 3250 (1973) | 36 (1956) | 263 | 58 | 76 | 99 | 110 | 169 | 309 | 385 | 537 | 603 |
| 2026-04-22 05:00 | 3.24 | 247 | 3250 (1973) | 36 (1956) | 263 | 58 | 76 | 99 | 110 | 169 | 309 | 385 | 537 | 603 |
| 2026-04-22 04:00 | 3.25 | 249 | 3250 (1973) | 36 (1956) | 263 | 58 | 76 | 99 | 110 | 169 | 309 | 385 | 537 | 603 |
| 2026-04-22 03:00 | 3.25 | 249 | 3250 (1973) | 36 (1956) | 263 | 58 | 76 | 99 | 110 | 169 | 309 | 385 | 537 | 603 |
| 2026-04-22 02:00 | 3.26 | 251 | 3250 (1973) | 36 (1956) | 263 | 58 | 76 | 99 | 110 | 169 | 309 | 385 | 537 | 603 |
| 2026-04-22 01:00 | 3.26 | 251 | 3250 (1973) | 36 (1956) | 263 | 58 | 76 | 99 | 110 | 169 | 309 | 385 | 537 | 603 |
| 2026-04-22 00:00 | 3.27 | 254 | 3250 (1973) | 36 (1956) | 263 | 58 | 76 | 99 | 110 | 169 | 309 | 385 | 537 | 603 |
| 2026-04-21 23:00 | 3.27 | 254 | 3250 (1973) | 36 (1956) | 263 | 58 | 76 | 99 | 110 | 169 | 309 | 385 | 537 | 603 |
| 2026-04-21 22:00 | 3.28 | 256 | 2190 (1984) | 36 (1956) | 255 | 62 | 76 | 105 | 112 | 181 | 290 | 333 | 503 | 805 |
| 2026-04-21 21:00 | 3.28 | 256 | 2190 (1984) | 36 (1956) | 255 | 62 | 76 | 105 | 112 | 181 | 290 | 333 | 503 | 805 |
| 2026-04-21 20:00 | 3.28 | 256 | 2190 (1984) | 36 (1956) | 255 | 62 | 76 | 105 | 112 | 181 | 290 | 333 | 503 | 805 |
| 2026-04-21 19:00 | 3.29 | 259 | 2190 (1984) | 36 (1956) | 255 | 62 | 76 | 105 | 112 | 181 | 290 | 333 | 503 | 805 |
| 2026-04-21 18:00 | 3.30 | 261 | 2190 (1984) | 36 (1956) | 255 | 62 | 76 | 105 | 112 | 181 | 290 | 333 | 503 | 805 |
| 2026-04-21 17:00 | 3.31 | 263 | 2190 (1984) | 36 (1956) | 255 | 62 | 76 | 105 | 112 | 181 | 290 | 333 | 503 | 805 |
| 2026-04-21 16:00 | 3.31 | 263 | 2190 (1984) | 36 (1956) | 255 | 62 | 76 | 105 | 112 | 181 | 290 | 333 | 503 | 805 |
| 2026-04-21 15:00 | 3.33 | 268 | 2190 (1984) | 36 (1956) | 255 | 62 | 76 | 105 | 112 | 181 | 290 | 333 | 503 | 805 |
| 2026-04-21 14:00 | 3.34 | 271 | 2190 (1984) | 36 (1956) | 255 | 62 | 76 | 105 | 112 | 181 | 290 | 333 | 503 | 805 |
| 2026-04-21 13:00 | 3.35 | 273 | 2190 (1984) | 36 (1956) | 255 | 62 | 76 | 105 | 112 | 181 | 290 | 333 | 503 | 805 |
| 2026-04-21 12:00 | 3.35 | 273 | 2190 (1984) | 36 (1956) | 255 | 62 | 76 | 105 | 112 | 181 | 290 | 333 | 503 | 805 |
| 2026-04-21 11:00 | 3.36 | 276 | 2190 (1984) | 36 (1956) | 255 | 62 | 76 | 105 | 112 | 181 | 290 | 333 | 503 | 805 |
| 2026-04-21 10:00 | 3.36 | 276 | 2190 (1984) | 36 (1956) | 255 | 62 | 76 | 105 | 112 | 181 | 290 | 333 | 503 | 805 |
| 2026-04-21 09:00 | 3.36 | 276 | 2190 (1984) | 36 (1956) | 255 | 62 | 76 | 105 | 112 | 181 | 290 | 333 | 503 | 805 |
| 2026-04-21 08:00 | 3.37 | 278 | 2190 (1984) | 36 (1956) | 255 | 62 | 76 | 105 | 112 | 181 | 290 | 333 | 503 | 805 |
| 2026-04-21 07:00 | 3.38 | 281 | 2190 (1984) | 36 (1956) | 255 | 62 | 76 | 105 | 112 | 181 | 290 | 333 | 503 | 805 |
| 2026-04-21 06:00 | 3.38 | 281 | 2190 (1984) | 36 (1956) | 255 | 62 | 76 | 105 | 112 | 181 | 290 | 333 | 503 | 805 |
| 2026-04-21 05:00 | 3.39 | 283 | 2190 (1984) | 36 (1956) | 255 | 62 | 76 | 105 | 112 | 181 | 290 | 333 | 503 | 805 |
| 2026-04-21 04:00 | 3.39 | 283 | 2190 (1984) | 36 (1956) | 255 | 62 | 76 | 105 | 112 | 181 | 290 | 333 | 503 | 805 |
| 2026-04-21 03:00 | 3.40 | 286 | 2190 (1984) | 36 (1956) | 255 | 62 | 76 | 105 | 112 | 181 | 290 | 333 | 503 | 805 |
| 2026-04-21 02:00 | 3.41 | 288 | 2190 (1984) | 36 (1956) | 255 | 62 | 76 | 105 | 112 | 181 | 290 | 333 | 503 | 805 |
| 2026-04-21 01:00 | 3.42 | 291 | 2190 (1984) | 36 (1956) | 255 | 62 | 76 | 105 | 112 | 181 | 290 | 333 | 503 | 805 |
| 2026-04-21 00:00 | 3.43 | 293 | 2190 (1984) | 36 (1956) | 255 | 62 | 76 | 105 | 112 | 181 | 290 | 333 | 503 | 805 |
| 2026-04-20 23:00 | 3.43 | 293 | 2190 (1984) | 36 (1956) | 255 | 62 | 76 | 105 | 112 | 181 | 290 | 333 | 503 | 805 |
| 2026-04-20 22:00 | 3.44 | 296 | 3110 (2002) | 37 (1956) | 283 | 67 | 77 | 106 | 112 | 184 | 273 | 311 | 507 | 1230 |
| 2026-04-20 21:00 | 3.45 | 298 | 3110 (2002) | 37 (1956) | 283 | 67 | 77 | 106 | 112 | 184 | 273 | 311 | 507 | 1230 |
| 2026-04-20 20:00 | 3.46 | 301 | 3110 (2002) | 37 (1956) | 283 | 67 | 77 | 106 | 112 | 184 | 273 | 311 | 507 | 1230 |
| 2026-04-20 19:00 | 3.46 | 301 | 3110 (2002) | 37 (1956) | 283 | 67 | 77 | 106 | 112 | 184 | 273 | 311 | 507 | 1230 |
| 2026-04-20 18:00 | 3.48 | 306 | 3110 (2002) | 37 (1956) | 283 | 67 | 77 | 106 | 112 | 184 | 273 | 311 | 507 | 1230 |
| 2026-04-20 17:00 | 3.49 | 309 | 3110 (2002) | 37 (1956) | 283 | 67 | 77 | 106 | 112 | 184 | 273 | 311 | 507 | 1230 |
| 2026-04-20 16:00 | 3.50 | 311 | 3110 (2002) | 37 (1956) | 283 | 67 | 77 | 106 | 112 | 184 | 273 | 311 | 507 | 1230 |
| 2026-04-20 15:00 | 3.51 | 314 | 3110 (2002) | 37 (1956) | 283 | 67 | 77 | 106 | 112 | 184 | 273 | 311 | 507 | 1230 |
| 2026-04-20 14:00 | 3.52 | 317 | 3110 (2002) | 37 (1956) | 283 | 67 | 77 | 106 | 112 | 184 | 273 | 311 | 507 | 1230 |
| 2026-04-20 13:00 | 3.53 | 320 | 3110 (2002) | 37 (1956) | 283 | 67 | 77 | 106 | 112 | 184 | 273 | 311 | 507 | 1230 |
| 2026-04-20 12:00 | 3.54 | 322 | 3110 (2002) | 37 (1956) | 283 | 67 | 77 | 106 | 112 | 184 | 273 | 311 | 507 | 1230 |
| 2026-04-20 11:00 | 3.55 | 325 | 3110 (2002) | 37 (1956) | 283 | 67 | 77 | 106 | 112 | 184 | 273 | 311 | 507 | 1230 |
| 2026-04-20 10:00 | 3.56 | 328 | 3110 (2002) | 37 (1956) | 283 | 67 | 77 | 106 | 112 | 184 | 273 | 311 | 507 | 1230 |
| 2026-04-20 09:00 | 3.57 | 330 | 3110 (2002) | 37 (1956) | 283 | 67 | 77 | 106 | 112 | 184 | 273 | 311 | 507 | 1230 |
| 2026-04-20 08:00 | 3.58 | 333 | 3110 (2002) | 37 (1956) | 283 | 67 | 77 | 106 | 112 | 184 | 273 | 311 | 507 | 1230 |
| 2026-04-20 07:00 | 3.59 | 336 | 3110 (2002) | 37 (1956) | 283 | 67 | 77 | 106 | 112 | 184 | 273 | 311 | 507 | 1230 |
| 2026-04-20 06:00 | 3.60 | 339 | 3110 (2002) | 37 (1956) | 283 | 67 | 77 | 106 | 112 | 184 | 273 | 311 | 507 | 1230 |
| 2026-04-20 05:00 | 3.61 | 341 | 3110 (2002) | 37 (1956) | 283 | 67 | 77 | 106 | 112 | 184 | 273 | 311 | 507 | 1230 |
| 2026-04-20 04:00 | 3.62 | 344 | 3110 (2002) | 37 (1956) | 283 | 67 | 77 | 106 | 112 | 184 | 273 | 311 | 507 | 1230 |
| 2026-04-20 03:00 | 3.64 | 350 | 3110 (2002) | 37 (1956) | 283 | 67 | 77 | 106 | 112 | 184 | 273 | 311 | 507 | 1230 |
| 2026-04-20 02:00 | 3.65 | 353 | 3110 (2002) | 37 (1956) | 283 | 67 | 77 | 106 | 112 | 184 | 273 | 311 | 507 | 1230 |
| 2026-04-20 01:00 | 3.66 | 356 | 3110 (2002) | 37 (1956) | 283 | 67 | 77 | 106 | 112 | 184 | 273 | 311 | 507 | 1230 |
| 2026-04-20 00:00 | 3.67 | 359 | 3110 (2002) | 37 (1956) | 283 | 67 | 77 | 106 | 112 | 184 | 273 | 311 | 507 | 1230 |
| 2026-04-19 23:00 | 3.68 | 361 | 3110 (2002) | 37 (1956) | 283 | 67 | 77 | 106 | 112 | 184 | 273 | 311 | 507 | 1230 |
| 2026-04-19 22:00 | 3.70 | 367 | 6940 (1941) | 37 (1956) | 320 | 62 | 79 | 98 | 114 | 185 | 287 | 337 | 524 | 895 |
| 2026-04-19 21:00 | 3.71 | 370 | 6940 (1941) | 37 (1956) | 320 | 62 | 79 | 98 | 114 | 185 | 287 | 337 | 524 | 895 |
| 2026-04-19 20:00 | 3.73 | 376 | 6940 (1941) | 37 (1956) | 320 | 62 | 79 | 98 | 114 | 185 | 287 | 337 | 524 | 895 |
| 2026-04-19 19:00 | 3.75 | 382 | 6940 (1941) | 37 (1956) | 320 | 62 | 79 | 98 | 114 | 185 | 287 | 337 | 524 | 895 |
| 2026-04-19 18:00 | 3.77 | 388 | 6940 (1941) | 37 (1956) | 320 | 62 | 79 | 98 | 114 | 185 | 287 | 337 | 524 | 895 |
| 2026-04-19 17:00 | 3.79 | 394 | 6940 (1941) | 37 (1956) | 320 | 62 | 79 | 98 | 114 | 185 | 287 | 337 | 524 | 895 |
| 2026-04-19 16:00 | 3.81 | 400 | 6940 (1941) | 37 (1956) | 320 | 62 | 79 | 98 | 114 | 185 | 287 | 337 | 524 | 895 |
| 2026-04-19 15:00 | 3.83 | 406 | 6940 (1941) | 37 (1956) | 320 | 62 | 79 | 98 | 114 | 185 | 287 | 337 | 524 | 895 |
| 2026-04-19 14:00 | 3.86 | 416 | 6940 (1941) | 37 (1956) | 320 | 62 | 79 | 98 | 114 | 185 | 287 | 337 | 524 | 895 |
| 2026-04-19 13:00 | 3.89 | 425 | 6940 (1941) | 37 (1956) | 320 | 62 | 79 | 98 | 114 | 185 | 287 | 337 | 524 | 895 |
| 2026-04-19 12:00 | 3.91 | 432 | 6940 (1941) | 37 (1956) | 320 | 62 | 79 | 98 | 114 | 185 | 287 | 337 | 524 | 895 |
| 2026-04-19 11:00 | 3.93 | 438 | 6940 (1941) | 37 (1956) | 320 | 62 | 79 | 98 | 114 | 185 | 287 | 337 | 524 | 895 |
| 2026-04-19 10:00 | 3.96 | 448 | 6940 (1941) | 37 (1956) | 320 | 62 | 79 | 98 | 114 | 185 | 287 | 337 | 524 | 895 |
| 2026-04-19 09:00 | 3.99 | 458 | 6940 (1941) | 37 (1956) | 320 | 62 | 79 | 98 | 114 | 185 | 287 | 337 | 524 | 895 |
| 2026-04-19 08:00 | 4.03 | 471 | 6940 (1941) | 37 (1956) | 320 | 62 | 79 | 98 | 114 | 185 | 287 | 337 | 524 | 895 |
| 2026-04-19 07:00 | 4.07 | 485 | 6940 (1941) | 37 (1956) | 320 | 62 | 79 | 98 | 114 | 185 | 287 | 337 | 524 | 895 |
| 2026-04-19 06:00 | 4.11 | 499 | 6940 (1941) | 37 (1956) | 320 | 62 | 79 | 98 | 114 | 185 | 287 | 337 | 524 | 895 |
| 2026-04-19 05:00 | 4.16 | 516 | 6940 (1941) | 37 (1956) | 320 | 62 | 79 | 98 | 114 | 185 | 287 | 337 | 524 | 895 |
| 2026-04-19 04:00 | 4.21 | 534 | 6940 (1941) | 37 (1956) | 320 | 62 | 79 | 98 | 114 | 185 | 287 | 337 | 524 | 895 |
| 2026-04-19 03:00 | 4.28 | 560 | 6940 (1941) | 37 (1956) | 320 | 62 | 79 | 98 | 114 | 185 | 287 | 337 | 524 | 895 |
| 2026-04-19 02:00 | 4.35 | 587 | 6940 (1941) | 37 (1956) | 320 | 62 | 79 | 98 | 114 | 185 | 287 | 337 | 524 | 895 |
| 2026-04-19 01:00 | 4.43 | 618 | 6940 (1941) | 37 (1956) | 320 | 62 | 79 | 98 | 114 | 185 | 287 | 337 | 524 | 895 |
| 2026-04-19 00:00 | 4.51 | 650 | 6940 (1941) | 37 (1956) | 320 | 62 | 79 | 98 | 114 | 185 | 287 | 337 | 524 | 895 |
| 2026-04-18 23:00 | 4.62 | 696 | 6940 (1941) | 37 (1956) | 320 | 62 | 79 | 98 | 114 | 185 | 287 | 337 | 524 | 895 |
| 2026-04-18 22:00 | 4.73 | 743 | 888 (1939) | 38 (1956) | 218 | 60 | 69 | 93 | 111 | 172 | 271 | 315 | 405 | 645 |
| 2026-04-18 21:00 | 4.88 | 811 | 888 (1939) | 38 (1956) | 218 | 60 | 69 | 93 | 111 | 172 | 271 | 315 | 405 | 645 |
| 2026-04-18 20:00 | 5.04 | 887 | 888 (1939) | 38 (1956) | 218 | 60 | 69 | 93 | 111 | 172 | 271 | 315 | 405 | 645 |
| 2026-04-18 19:00 | 5.22 | 978 | 888 (1939) | 38 (1956) | 218 | 60 | 69 | 93 | 111 | 172 | 271 | 315 | 405 | 645 |
| 2026-04-18 18:00 | 5.42 | 1080 | 888 (1939) | 38 (1956) | 218 | 60 | 69 | 93 | 111 | 172 | 271 | 315 | 405 | 645 |
| 2026-04-18 17:00 | 5.57 | 1170 | 888 (1939) | 38 (1956) | 218 | 60 | 69 | 93 | 111 | 172 | 271 | 315 | 405 | 645 |
| 2026-04-18 16:00 | 5.57 | 1170 | 888 (1939) | 38 (1956) | 218 | 60 | 69 | 93 | 111 | 172 | 271 | 315 | 405 | 645 |
| 2026-04-18 15:00 | 5.41 | 1080 | 888 (1939) | 38 (1956) | 218 | 60 | 69 | 93 | 111 | 172 | 271 | 315 | 405 | 645 |
| 2026-04-18 14:00 | 5.42 | 1080 | 888 (1939) | 38 (1956) | 218 | 60 | 69 | 93 | 111 | 172 | 271 | 315 | 405 | 645 |
| 2026-04-18 13:00 | 5.48 | 1120 | 888 (1939) | 38 (1956) | 218 | 60 | 69 | 93 | 111 | 172 | 271 | 315 | 405 | 645 |
| 2026-04-18 12:00 | 5.46 | 1110 | 888 (1939) | 38 (1956) | 218 | 60 | 69 | 93 | 111 | 172 | 271 | 315 | 405 | 645 |
| 2026-04-18 11:00 | 5.56 | 1160 | 888 (1939) | 38 (1956) | 218 | 60 | 69 | 93 | 111 | 172 | 271 | 315 | 405 | 645 |
| 2026-04-18 10:00 | 5.72 | 1260 | 888 (1939) | 38 (1956) | 218 | 60 | 69 | 93 | 111 | 172 | 271 | 315 | 405 | 645 |
| 2026-04-18 09:00 | 5.93 | 1390 | 888 (1939) | 38 (1956) | 218 | 60 | 69 | 93 | 111 | 172 | 271 | 315 | 405 | 645 |
| 2026-04-18 08:00 | 6.05 | 1460 | 888 (1939) | 38 (1956) | 218 | 60 | 69 | 93 | 111 | 172 | 271 | 315 | 405 | 645 |
| 2026-04-18 07:00 | 5.81 | 1310 | 888 (1939) | 38 (1956) | 218 | 60 | 69 | 93 | 111 | 172 | 271 | 315 | 405 | 645 |
| 2026-04-18 06:00 | 4.95 | 844 | 888 (1939) | 38 (1956) | 218 | 60 | 69 | 93 | 111 | 172 | 271 | 315 | 405 | 645 |
| 2026-04-18 05:00 | 3.85 | 413 | 888 (1939) | 38 (1956) | 218 | 60 | 69 | 93 | 111 | 172 | 271 | 315 | 405 | 645 |
| 2026-04-18 04:00 | 3.32 | 266 | 888 (1939) | 38 (1956) | 218 | 60 | 69 | 93 | 111 | 172 | 271 | 315 | 405 | 645 |
| 2026-04-18 03:00 | 3.12 | 220 | 888 (1939) | 38 (1956) | 218 | 60 | 69 | 93 | 111 | 172 | 271 | 315 | 405 | 645 |
| 2026-04-18 02:00 | 3.06 | 207 | 888 (1939) | 38 (1956) | 218 | 60 | 69 | 93 | 111 | 172 | 271 | 315 | 405 | 645 |
| 2026-04-18 01:00 | 3.03 | 201 | 888 (1939) | 38 (1956) | 218 | 60 | 69 | 93 | 111 | 172 | 271 | 315 | 405 | 645 |
| 2026-04-18 00:00 | 3.00 | 195 | 888 (1939) | 38 (1956) | 218 | 60 | 69 | 93 | 111 | 172 | 271 | 315 | 405 | 645 |
| 2026-04-17 23:00 | 2.99 | 193 | 888 (1939) | 38 (1956) | 218 | 60 | 69 | 93 | 111 | 172 | 271 | 315 | 405 | 645 |
| 2026-04-17 22:00 | 2.97 | 189 | 2700 (1939) | 40 (1956) | 250 | 64 | 72 | 97 | 113 | 168 | 277 | 313 | 434 | 670 |
| 2026-04-17 21:00 | 2.96 | 187 | 2700 (1939) | 40 (1956) | 250 | 64 | 72 | 97 | 113 | 168 | 277 | 313 | 434 | 670 |
| 2026-04-17 20:00 | 2.97 | 189 | 2700 (1939) | 40 (1956) | 250 | 64 | 72 | 97 | 113 | 168 | 277 | 313 | 434 | 670 |
| 2026-04-17 19:00 | 2.97 | 189 | 2700 (1939) | 40 (1956) | 250 | 64 | 72 | 97 | 113 | 168 | 277 | 313 | 434 | 670 |
| 2026-04-17 18:00 | 2.98 | 191 | 2700 (1939) | 40 (1956) | 250 | 64 | 72 | 97 | 113 | 168 | 277 | 313 | 434 | 670 |
| 2026-04-17 17:00 | 2.98 | 191 | 2700 (1939) | 40 (1956) | 250 | 64 | 72 | 97 | 113 | 168 | 277 | 313 | 434 | 670 |
| 2026-04-17 16:00 | 2.99 | 193 | 2700 (1939) | 40 (1956) | 250 | 64 | 72 | 97 | 113 | 168 | 277 | 313 | 434 | 670 |
| 2026-04-17 15:00 | 2.99 | 193 | 2700 (1939) | 40 (1956) | 250 | 64 | 72 | 97 | 113 | 168 | 277 | 313 | 434 | 670 |
| 2026-04-17 14:00 | 3.00 | 195 | 2700 (1939) | 40 (1956) | 250 | 64 | 72 | 97 | 113 | 168 | 277 | 313 | 434 | 670 |
| 2026-04-17 13:00 | 3.00 | 195 | 2700 (1939) | 40 (1956) | 250 | 64 | 72 | 97 | 113 | 168 | 277 | 313 | 434 | 670 |
| 2026-04-17 12:00 | 3.00 | 195 | 2700 (1939) | 40 (1956) | 250 | 64 | 72 | 97 | 113 | 168 | 277 | 313 | 434 | 670 |
| 2026-04-17 11:00 | 3.01 | 197 | 2700 (1939) | 40 (1956) | 250 | 64 | 72 | 97 | 113 | 168 | 277 | 313 | 434 | 670 |
| 2026-04-17 10:00 | 3.01 | 197 | 2700 (1939) | 40 (1956) | 250 | 64 | 72 | 97 | 113 | 168 | 277 | 313 | 434 | 670 |
| 2026-04-17 09:00 | 3.01 | 197 | 2700 (1939) | 40 (1956) | 250 | 64 | 72 | 97 | 113 | 168 | 277 | 313 | 434 | 670 |
| 2026-04-17 08:00 | 3.02 | 199 | 2700 (1939) | 40 (1956) | 250 | 64 | 72 | 97 | 113 | 168 | 277 | 313 | 434 | 670 |
| 2026-04-17 07:00 | 3.02 | 199 | 2700 (1939) | 40 (1956) | 250 | 64 | 72 | 97 | 113 | 168 | 277 | 313 | 434 | 670 |
| 2026-04-17 06:00 | 3.03 | 201 | 2700 (1939) | 40 (1956) | 250 | 64 | 72 | 97 | 113 | 168 | 277 | 313 | 434 | 670 |
| 2026-04-17 05:00 | 3.03 | 201 | 2700 (1939) | 40 (1956) | 250 | 64 | 72 | 97 | 113 | 168 | 277 | 313 | 434 | 670 |
| 2026-04-17 04:00 | 3.04 | 203 | 2700 (1939) | 40 (1956) | 250 | 64 | 72 | 97 | 113 | 168 | 277 | 313 | 434 | 670 |
| 2026-04-17 03:00 | 3.04 | 203 | 2700 (1939) | 40 (1956) | 250 | 64 | 72 | 97 | 113 | 168 | 277 | 313 | 434 | 670 |
| 2026-04-17 02:00 | 3.04 | 203 | 2700 (1939) | 40 (1956) | 250 | 64 | 72 | 97 | 113 | 168 | 277 | 313 | 434 | 670 |
| 2026-04-17 01:00 | 3.05 | 205 | 2700 (1939) | 40 (1956) | 250 | 64 | 72 | 97 | 113 | 168 | 277 | 313 | 434 | 670 |
| 2026-04-17 00:00 | 3.06 | 207 | 2700 (1939) | 40 (1956) | 250 | 64 | 72 | 97 | 113 | 168 | 277 | 313 | 434 | 670 |
| 2026-04-16 23:00 | 3.06 | 207 | 2700 (1939) | 40 (1956) | 250 | 64 | 72 | 97 | 113 | 168 | 277 | 313 | 434 | 670 |
| 2026-04-16 22:00 | 3.07 | 209 | 4010 (1939) | 43 (1956) | 303 | 68 | 74 | 100 | 116 | 177 | 318 | 353 | 555 | 962 |
| 2026-04-16 21:00 | 3.07 | 209 | 4010 (1939) | 43 (1956) | 303 | 68 | 74 | 100 | 116 | 177 | 318 | 353 | 555 | 962 |
| 2026-04-16 20:00 | 3.08 | 211 | 4010 (1939) | 43 (1956) | 303 | 68 | 74 | 100 | 116 | 177 | 318 | 353 | 555 | 962 |
| 2026-04-16 19:00 | 3.09 | 213 | 4010 (1939) | 43 (1956) | 303 | 68 | 74 | 100 | 116 | 177 | 318 | 353 | 555 | 962 |
| 2026-04-16 18:00 | 3.10 | 216 | 4010 (1939) | 43 (1956) | 303 | 68 | 74 | 100 | 116 | 177 | 318 | 353 | 555 | 962 |
| 2026-04-16 17:00 | 3.12 | 220 | 4010 (1939) | 43 (1956) | 303 | 68 | 74 | 100 | 116 | 177 | 318 | 353 | 555 | 962 |
| 2026-04-16 16:00 | 3.13 | 222 | 4010 (1939) | 43 (1956) | 303 | 68 | 74 | 100 | 116 | 177 | 318 | 353 | 555 | 962 |
| 2026-04-16 15:00 | 3.14 | 224 | 4010 (1939) | 43 (1956) | 303 | 68 | 74 | 100 | 116 | 177 | 318 | 353 | 555 | 962 |
| 2026-04-16 14:00 | 3.15 | 226 | 4010 (1939) | 43 (1956) | 303 | 68 | 74 | 100 | 116 | 177 | 318 | 353 | 555 | 962 |
| 2026-04-16 13:00 | 3.16 | 229 | 4010 (1939) | 43 (1956) | 303 | 68 | 74 | 100 | 116 | 177 | 318 | 353 | 555 | 962 |
| 2026-04-16 12:00 | 3.18 | 233 | 4010 (1939) | 43 (1956) | 303 | 68 | 74 | 100 | 116 | 177 | 318 | 353 | 555 | 962 |
| 2026-04-16 11:00 | 3.21 | 240 | 4010 (1939) | 43 (1956) | 303 | 68 | 74 | 100 | 116 | 177 | 318 | 353 | 555 | 962 |
| 2026-04-16 10:00 | 3.23 | 244 | 4010 (1939) | 43 (1956) | 303 | 68 | 74 | 100 | 116 | 177 | 318 | 353 | 555 | 962 |
| 2026-04-16 09:00 | 3.25 | 249 | 4010 (1939) | 43 (1956) | 303 | 68 | 74 | 100 | 116 | 177 | 318 | 353 | 555 | 962 |
| 2026-04-16 08:00 | 3.26 | 293 | 4010 (1939) | 43 (1956) | 303 | 68 | 74 | 100 | 116 | 177 | 318 | 353 | 555 | 962 |
| 2026-04-16 07:00 | 3.26 | 293 | 4010 (1939) | 43 (1956) | 303 | 68 | 74 | 100 | 116 | 177 | 318 | 353 | 555 | 962 |
| 2026-04-16 06:00 | 3.16 | 268 | 4010 (1939) | 43 (1956) | 303 | 68 | 74 | 100 | 116 | 177 | 318 | 353 | 555 | 962 |
| 2026-04-16 05:00 | 3.05 | 242 | 4010 (1939) | 43 (1956) | 303 | 68 | 74 | 100 | 116 | 177 | 318 | 353 | 555 | 962 |
| 2026-04-16 04:00 | 2.97 | 224 | 4010 (1939) | 43 (1956) | 303 | 68 | 74 | 100 | 116 | 177 | 318 | 353 | 555 | 962 |
| 2026-04-16 03:00 | 2.88 | 205 | 4010 (1939) | 43 (1956) | 303 | 68 | 74 | 100 | 116 | 177 | 318 | 353 | 555 | 962 |
| 2026-04-16 02:00 | 2.85 | 199 | 4010 (1939) | 43 (1956) | 303 | 68 | 74 | 100 | 116 | 177 | 318 | 353 | 555 | 962 |
| 2026-04-16 01:00 | 2.83 | 195 | 4010 (1939) | 43 (1956) | 303 | 68 | 74 | 100 | 116 | 177 | 318 | 353 | 555 | 962 |
| 2026-04-16 00:00 | 2.80 | 189 | 4010 (1939) | 43 (1956) | 303 | 68 | 74 | 100 | 116 | 177 | 318 | 353 | 555 | 962 |
| 2026-04-15 23:00 | 2.77 | 183 | 4010 (1939) | 43 (1956) | 303 | 68 | 74 | 100 | 116 | 177 | 318 | 353 | 555 | 962 |
| 2026-04-15 22:00 | 2.76 | 181 | 3320 (1991) | 44 (1954) | 298 | 66 | 73 | 96 | 109 | 173 | 299 | 354 | 540 | 1250 |
| 2026-04-15 21:00 | 2.75 | 179 | 3320 (1991) | 44 (1954) | 298 | 66 | 73 | 96 | 109 | 173 | 299 | 354 | 540 | 1250 |
| 2026-04-15 20:00 | 2.74 | 177 | 3320 (1991) | 44 (1954) | 298 | 66 | 73 | 96 | 109 | 173 | 299 | 354 | 540 | 1250 |
| 2026-04-15 19:00 | 2.75 | 179 | 3320 (1991) | 44 (1954) | 298 | 66 | 73 | 96 | 109 | 173 | 299 | 354 | 540 | 1250 |
| 2026-04-15 18:00 | 2.75 | 179 | 3320 (1991) | 44 (1954) | 298 | 66 | 73 | 96 | 109 | 173 | 299 | 354 | 540 | 1250 |
| 2026-04-15 17:00 | 2.76 | 181 | 3320 (1991) | 44 (1954) | 298 | 66 | 73 | 96 | 109 | 173 | 299 | 354 | 540 | 1250 |
| 2026-04-15 16:00 | 2.76 | 181 | 3320 (1991) | 44 (1954) | 298 | 66 | 73 | 96 | 109 | 173 | 299 | 354 | 540 | 1250 |
| 2026-04-15 15:00 | 2.76 | 181 | 3320 (1991) | 44 (1954) | 298 | 66 | 73 | 96 | 109 | 173 | 299 | 354 | 540 | 1250 |
| 2026-04-15 14:00 | 2.76 | 181 | 3320 (1991) | 44 (1954) | 298 | 66 | 73 | 96 | 109 | 173 | 299 | 354 | 540 | 1250 |
| 2026-04-15 13:00 | 2.77 | 183 | 3320 (1991) | 44 (1954) | 298 | 66 | 73 | 96 | 109 | 173 | 299 | 354 | 540 | 1250 |
| 2026-04-15 12:00 | 2.75 | 179 | 3320 (1991) | 44 (1954) | 298 | 66 | 73 | 96 | 109 | 173 | 299 | 354 | 540 | 1250 |
| 2026-04-15 11:00 | 2.74 | 177 | 3320 (1991) | 44 (1954) | 298 | 66 | 73 | 96 | 109 | 173 | 299 | 354 | 540 | 1250 |
| 2026-04-15 10:00 | 2.74 | 177 | 3320 (1991) | 44 (1954) | 298 | 66 | 73 | 96 | 109 | 173 | 299 | 354 | 540 | 1250 |
| 2026-04-15 09:00 | 2.73 | 175 | 3320 (1991) | 44 (1954) | 298 | 66 | 73 | 96 | 109 | 173 | 299 | 354 | 540 | 1250 |
| 2026-04-15 08:00 | 2.72 | 173 | 3320 (1991) | 44 (1954) | 298 | 66 | 73 | 96 | 109 | 173 | 299 | 354 | 540 | 1250 |
| 2026-04-15 07:00 | 2.72 | 173 | 3320 (1991) | 44 (1954) | 298 | 66 | 73 | 96 | 109 | 173 | 299 | 354 | 540 | 1250 |
| 2026-04-15 06:00 | 2.72 | 173 | 3320 (1991) | 44 (1954) | 298 | 66 | 73 | 96 | 109 | 173 | 299 | 354 | 540 | 1250 |
| 2026-04-15 05:00 | 2.73 | 175 | 3320 (1991) | 44 (1954) | 298 | 66 | 73 | 96 | 109 | 173 | 299 | 354 | 540 | 1250 |
| 2026-04-15 04:00 | 2.73 | 175 | 3320 (1991) | 44 (1954) | 298 | 66 | 73 | 96 | 109 | 173 | 299 | 354 | 540 | 1250 |
| 2026-04-15 03:00 | 2.73 | 175 | 3320 (1991) | 44 (1954) | 298 | 66 | 73 | 96 | 109 | 173 | 299 | 354 | 540 | 1250 |
| 2026-04-15 02:00 | 2.73 | 175 | 3320 (1991) | 44 (1954) | 298 | 66 | 73 | 96 | 109 | 173 | 299 | 354 | 540 | 1250 |
| 2026-04-15 01:00 | 2.73 | 175 | 3320 (1991) | 44 (1954) | 298 | 66 | 73 | 96 | 109 | 173 | 299 | 354 | 540 | 1250 |
| 2026-04-15 00:00 | 2.73 | 175 | 3320 (1991) | 44 (1954) | 298 | 66 | 73 | 96 | 109 | 173 | 299 | 354 | 540 | 1250 |
| 2026-04-14 23:00 | 2.73 | 175 | 3320 (1991) | 44 (1954) | 298 | 66 | 73 | 96 | 109 | 173 | 299 | 354 | 540 | 1250 |
| 2026-04-14 22:00 | 2.73 | 175 | 10200 (1945) | 44 (1954) | 356 | 58 | 69 | 99 | 107 | 173 | 278 | 335 | 587 | 1170 |
| 2026-04-14 21:00 | 2.73 | 175 | 10200 (1945) | 44 (1954) | 356 | 58 | 69 | 99 | 107 | 173 | 278 | 335 | 587 | 1170 |
| 2026-04-14 20:00 | 2.73 | 175 | 10200 (1945) | 44 (1954) | 356 | 58 | 69 | 99 | 107 | 173 | 278 | 335 | 587 | 1170 |
| 2026-04-14 19:00 | 2.73 | 175 | 10200 (1945) | 44 (1954) | 356 | 58 | 69 | 99 | 107 | 173 | 278 | 335 | 587 | 1170 |
| 2026-04-14 18:00 | 2.73 | 175 | 10200 (1945) | 44 (1954) | 356 | 58 | 69 | 99 | 107 | 173 | 278 | 335 | 587 | 1170 |
| 2026-04-14 17:00 | 2.74 | 177 | 10200 (1945) | 44 (1954) | 356 | 58 | 69 | 99 | 107 | 173 | 278 | 335 | 587 | 1170 |
| 2026-04-14 16:00 | 2.74 | 177 | 10200 (1945) | 44 (1954) | 356 | 58 | 69 | 99 | 107 | 173 | 278 | 335 | 587 | 1170 |
| 2026-04-14 15:00 | 2.75 | 179 | 10200 (1945) | 44 (1954) | 356 | 58 | 69 | 99 | 107 | 173 | 278 | 335 | 587 | 1170 |
| 2026-04-14 14:00 | 2.75 | 179 | 10200 (1945) | 44 (1954) | 356 | 58 | 69 | 99 | 107 | 173 | 278 | 335 | 587 | 1170 |
| 2026-04-14 13:00 | 2.75 | 179 | 10200 (1945) | 44 (1954) | 356 | 58 | 69 | 99 | 107 | 173 | 278 | 335 | 587 | 1170 |
| 2026-04-14 12:00 | 2.73 | 175 | 10200 (1945) | 44 (1954) | 356 | 58 | 69 | 99 | 107 | 173 | 278 | 335 | 587 | 1170 |
| 2026-04-14 10:00 | 2.75 | 179 | 10200 (1945) | 44 (1954) | 356 | 58 | 69 | 99 | 107 | 173 | 278 | 335 | 587 | 1170 |
| 2026-04-14 09:00 | 2.75 | 179 | 10200 (1945) | 44 (1954) | 356 | 58 | 69 | 99 | 107 | 173 | 278 | 335 | 587 | 1170 |
| 2026-04-14 08:00 | 2.75 | 179 | 10200 (1945) | 44 (1954) | 356 | 58 | 69 | 99 | 107 | 173 | 278 | 335 | 587 | 1170 |
| 2026-04-14 07:00 | 2.75 | 179 | 10200 (1945) | 44 (1954) | 356 | 58 | 69 | 99 | 107 | 173 | 278 | 335 | 587 | 1170 |
| 2026-04-14 06:00 | 2.75 | 179 | 10200 (1945) | 44 (1954) | 356 | 58 | 69 | 99 | 107 | 173 | 278 | 335 | 587 | 1170 |
| 2026-04-14 05:00 | 2.75 | 179 | 10200 (1945) | 44 (1954) | 356 | 58 | 69 | 99 | 107 | 173 | 278 | 335 | 587 | 1170 |
| 2026-04-14 04:00 | 2.76 | 181 | 10200 (1945) | 44 (1954) | 356 | 58 | 69 | 99 | 107 | 173 | 278 | 335 | 587 | 1170 |
| 2026-04-14 03:00 | 2.76 | 181 | 10200 (1945) | 44 (1954) | 356 | 58 | 69 | 99 | 107 | 173 | 278 | 335 | 587 | 1170 |
| 2026-04-14 02:00 | 2.76 | 181 | 10200 (1945) | 44 (1954) | 356 | 58 | 69 | 99 | 107 | 173 | 278 | 335 | 587 | 1170 |
| 2026-04-14 01:00 | 2.76 | 181 | 10200 (1945) | 44 (1954) | 356 | 58 | 69 | 99 | 107 | 173 | 278 | 335 | 587 | 1170 |
| 2026-04-14 00:00 | 2.76 | 181 | 10200 (1945) | 44 (1954) | 356 | 58 | 69 | 99 | 107 | 173 | 278 | 335 | 587 | 1170 |
| 2026-04-13 23:00 | 2.76 | 181 | 10200 (1945) | 44 (1954) | 356 | 58 | 69 | 99 | 107 | 173 | 278 | 335 | 587 | 1170 |
| 2026-04-13 22:00 | 2.76 | 181 | 6760 (1945) | 46 (1941) | 304 | 55 | 69 | 95 | 109 | 170 | 275 | 299 | 456 | 776 |
| 2026-04-13 21:00 | 2.76 | 181 | 6760 (1945) | 46 (1941) | 304 | 55 | 69 | 95 | 109 | 170 | 275 | 299 | 456 | 776 |
| 2026-04-13 20:00 | 2.76 | 181 | 6760 (1945) | 46 (1941) | 304 | 55 | 69 | 95 | 109 | 170 | 275 | 299 | 456 | 776 |
| 2026-04-13 19:00 | 2.76 | 181 | 6760 (1945) | 46 (1941) | 304 | 55 | 69 | 95 | 109 | 170 | 275 | 299 | 456 | 776 |
| 2026-04-13 18:00 | 2.76 | 181 | 6760 (1945) | 46 (1941) | 304 | 55 | 69 | 95 | 109 | 170 | 275 | 299 | 456 | 776 |
| 2026-04-13 17:00 | 2.77 | 183 | 6760 (1945) | 46 (1941) | 304 | 55 | 69 | 95 | 109 | 170 | 275 | 299 | 456 | 776 |
| 2026-04-13 16:00 | 2.77 | 183 | 6760 (1945) | 46 (1941) | 304 | 55 | 69 | 95 | 109 | 170 | 275 | 299 | 456 | 776 |
| 2026-04-13 15:00 | 2.77 | 183 | 6760 (1945) | 46 (1941) | 304 | 55 | 69 | 95 | 109 | 170 | 275 | 299 | 456 | 776 |
| 2026-04-13 14:00 | 2.77 | 183 | 6760 (1945) | 46 (1941) | 304 | 55 | 69 | 95 | 109 | 170 | 275 | 299 | 456 | 776 |
| 2026-04-13 13:00 | 2.77 | 183 | 6760 (1945) | 46 (1941) | 304 | 55 | 69 | 95 | 109 | 170 | 275 | 299 | 456 | 776 |
| 2026-04-13 12:00 | 2.78 | 185 | 6760 (1945) | 46 (1941) | 304 | 55 | 69 | 95 | 109 | 170 | 275 | 299 | 456 | 776 |
| 2026-04-13 11:00 | 2.78 | 185 | 6760 (1945) | 46 (1941) | 304 | 55 | 69 | 95 | 109 | 170 | 275 | 299 | 456 | 776 |
| 2026-04-13 10:00 | 2.78 | 185 | 6760 (1945) | 46 (1941) | 304 | 55 | 69 | 95 | 109 | 170 | 275 | 299 | 456 | 776 |
| 2026-04-13 09:00 | 2.78 | 185 | 6760 (1945) | 46 (1941) | 304 | 55 | 69 | 95 | 109 | 170 | 275 | 299 | 456 | 776 |
| 2026-04-13 08:00 | 2.78 | 185 | 6760 (1945) | 46 (1941) | 304 | 55 | 69 | 95 | 109 | 170 | 275 | 299 | 456 | 776 |
| 2026-04-13 07:00 | 2.78 | 185 | 6760 (1945) | 46 (1941) | 304 | 55 | 69 | 95 | 109 | 170 | 275 | 299 | 456 | 776 |
| 2026-04-13 06:00 | 2.78 | 185 | 6760 (1945) | 46 (1941) | 304 | 55 | 69 | 95 | 109 | 170 | 275 | 299 | 456 | 776 |
| 2026-04-13 05:00 | 2.79 | 187 | 6760 (1945) | 46 (1941) | 304 | 55 | 69 | 95 | 109 | 170 | 275 | 299 | 456 | 776 |
| 2026-04-13 04:00 | 2.79 | 187 | 6760 (1945) | 46 (1941) | 304 | 55 | 69 | 95 | 109 | 170 | 275 | 299 | 456 | 776 |
| 2026-04-13 03:00 | 2.79 | 187 | 6760 (1945) | 46 (1941) | 304 | 55 | 69 | 95 | 109 | 170 | 275 | 299 | 456 | 776 |
| 2026-04-13 02:00 | 2.79 | 187 | 6760 (1945) | 46 (1941) | 304 | 55 | 69 | 95 | 109 | 170 | 275 | 299 | 456 | 776 |
| 2026-04-13 01:00 | 2.79 | 187 | 6760 (1945) | 46 (1941) | 304 | 55 | 69 | 95 | 109 | 170 | 275 | 299 | 456 | 776 |
| 2026-04-13 00:00 | 2.79 | 187 | 6760 (1945) | 46 (1941) | 304 | 55 | 69 | 95 | 109 | 170 | 275 | 299 | 456 | 776 |
| 2026-04-12 23:00 | 2.79 | 187 | 6760 (1945) | 46 (1941) | 304 | 55 | 69 | 95 | 109 | 170 | 275 | 299 | 456 | 776 |
| 2026-04-12 22:00 | 2.79 | 187 | 3050 (1994) | 47 (1941) | 263 | 55 | 68 | 102 | 111 | 165 | 298 | 337 | 476 | 644 |
| 2026-04-12 21:00 | 2.80 | 189 | 3050 (1994) | 47 (1941) | 263 | 55 | 68 | 102 | 111 | 165 | 298 | 337 | 476 | 644 |
| 2026-04-12 20:00 | 2.80 | 189 | 3050 (1994) | 47 (1941) | 263 | 55 | 68 | 102 | 111 | 165 | 298 | 337 | 476 | 644 |
| 2026-04-12 19:00 | 2.80 | 189 | 3050 (1994) | 47 (1941) | 263 | 55 | 68 | 102 | 111 | 165 | 298 | 337 | 476 | 644 |
| 2026-04-12 18:00 | 2.80 | 189 | 3050 (1994) | 47 (1941) | 263 | 55 | 68 | 102 | 111 | 165 | 298 | 337 | 476 | 644 |
| 2026-04-12 17:00 | 2.80 | 189 | 3050 (1994) | 47 (1941) | 263 | 55 | 68 | 102 | 111 | 165 | 298 | 337 | 476 | 644 |
| 2026-04-12 16:00 | 2.80 | 189 | 3050 (1994) | 47 (1941) | 263 | 55 | 68 | 102 | 111 | 165 | 298 | 337 | 476 | 644 |
| 2026-04-12 15:00 | 2.80 | 189 | 3050 (1994) | 47 (1941) | 263 | 55 | 68 | 102 | 111 | 165 | 298 | 337 | 476 | 644 |
| 2026-04-12 14:00 | 2.81 | 191 | 3050 (1994) | 47 (1941) | 263 | 55 | 68 | 102 | 111 | 165 | 298 | 337 | 476 | 644 |
| 2026-04-12 13:00 | 2.81 | 191 | 3050 (1994) | 47 (1941) | 263 | 55 | 68 | 102 | 111 | 165 | 298 | 337 | 476 | 644 |
| 2026-04-12 12:00 | 2.81 | 191 | 3050 (1994) | 47 (1941) | 263 | 55 | 68 | 102 | 111 | 165 | 298 | 337 | 476 | 644 |
| 2026-04-12 11:00 | 2.81 | 191 | 3050 (1994) | 47 (1941) | 263 | 55 | 68 | 102 | 111 | 165 | 298 | 337 | 476 | 644 |
| 2026-04-12 10:00 | 2.81 | 191 | 3050 (1994) | 47 (1941) | 263 | 55 | 68 | 102 | 111 | 165 | 298 | 337 | 476 | 644 |
| 2026-04-12 09:00 | 2.81 | 191 | 3050 (1994) | 47 (1941) | 263 | 55 | 68 | 102 | 111 | 165 | 298 | 337 | 476 | 644 |
| 2026-04-12 08:00 | 2.81 | 191 | 3050 (1994) | 47 (1941) | 263 | 55 | 68 | 102 | 111 | 165 | 298 | 337 | 476 | 644 |
| 2026-04-12 07:00 | 2.82 | 193 | 3050 (1994) | 47 (1941) | 263 | 55 | 68 | 102 | 111 | 165 | 298 | 337 | 476 | 644 |
| 2026-04-12 06:00 | 2.82 | 193 | 3050 (1994) | 47 (1941) | 263 | 55 | 68 | 102 | 111 | 165 | 298 | 337 | 476 | 644 |
| 2026-04-12 05:00 | 2.82 | 193 | 3050 (1994) | 47 (1941) | 263 | 55 | 68 | 102 | 111 | 165 | 298 | 337 | 476 | 644 |
| 2026-04-12 04:00 | 2.82 | 193 | 3050 (1994) | 47 (1941) | 263 | 55 | 68 | 102 | 111 | 165 | 298 | 337 | 476 | 644 |
| 2026-04-12 03:00 | 2.82 | 193 | 3050 (1994) | 47 (1941) | 263 | 55 | 68 | 102 | 111 | 165 | 298 | 337 | 476 | 644 |
| 2026-04-12 02:00 | 2.82 | 193 | 3050 (1994) | 47 (1941) | 263 | 55 | 68 | 102 | 111 | 165 | 298 | 337 | 476 | 644 |
| 2026-04-12 01:00 | 2.82 | 193 | 3050 (1994) | 47 (1941) | 263 | 55 | 68 | 102 | 111 | 165 | 298 | 337 | 476 | 644 |
| 2026-04-12 00:00 | 2.82 | 193 | 3050 (1994) | 47 (1941) | 263 | 55 | 68 | 102 | 111 | 165 | 298 | 337 | 476 | 644 |
| 2026-04-11 23:00 | 2.83 | 195 | 3050 (1994) | 47 (1941) | 263 | 55 | 68 | 102 | 111 | 165 | 298 | 337 | 476 | 644 |
| 2026-04-11 22:00 | 2.83 | 195 | 6640 (1994) | 48 (1941) | 328 | 60 | 70 | 102 | 115 | 172 | 266 | 360 | 581 | 801 |
| 2026-04-11 21:00 | 2.83 | 195 | 6640 (1994) | 48 (1941) | 328 | 60 | 70 | 102 | 115 | 172 | 266 | 360 | 581 | 801 |
| 2026-04-11 20:00 | 2.83 | 195 | 6640 (1994) | 48 (1941) | 328 | 60 | 70 | 102 | 115 | 172 | 266 | 360 | 581 | 801 |
| 2026-04-11 19:00 | 2.83 | 195 | 6640 (1994) | 48 (1941) | 328 | 60 | 70 | 102 | 115 | 172 | 266 | 360 | 581 | 801 |
| 2026-04-11 18:00 | 2.84 | 197 | 6640 (1994) | 48 (1941) | 328 | 60 | 70 | 102 | 115 | 172 | 266 | 360 | 581 | 801 |
| 2026-04-11 17:00 | 2.84 | 197 | 6640 (1994) | 48 (1941) | 328 | 60 | 70 | 102 | 115 | 172 | 266 | 360 | 581 | 801 |
| 2026-04-11 16:00 | 2.84 | 197 | 6640 (1994) | 48 (1941) | 328 | 60 | 70 | 102 | 115 | 172 | 266 | 360 | 581 | 801 |
| 2026-04-11 15:00 | 2.85 | 199 | 6640 (1994) | 48 (1941) | 328 | 60 | 70 | 102 | 115 | 172 | 266 | 360 | 581 | 801 |
| 2026-04-11 14:00 | 2.85 | 199 | 6640 (1994) | 48 (1941) | 328 | 60 | 70 | 102 | 115 | 172 | 266 | 360 | 581 | 801 |
| 2026-04-11 13:00 | 2.85 | 199 | 6640 (1994) | 48 (1941) | 328 | 60 | 70 | 102 | 115 | 172 | 266 | 360 | 581 | 801 |
| 2026-04-11 12:00 | 2.85 | 199 | 6640 (1994) | 48 (1941) | 328 | 60 | 70 | 102 | 115 | 172 | 266 | 360 | 581 | 801 |
| 2026-04-11 11:00 | 2.85 | 199 | 6640 (1994) | 48 (1941) | 328 | 60 | 70 | 102 | 115 | 172 | 266 | 360 | 581 | 801 |
| 2026-04-11 10:00 | 2.85 | 199 | 6640 (1994) | 48 (1941) | 328 | 60 | 70 | 102 | 115 | 172 | 266 | 360 | 581 | 801 |
| 2026-04-11 09:00 | 2.86 | 201 | 6640 (1994) | 48 (1941) | 328 | 60 | 70 | 102 | 115 | 172 | 266 | 360 | 581 | 801 |
| 2026-04-11 08:00 | 2.85 | 199 | 6640 (1994) | 48 (1941) | 328 | 60 | 70 | 102 | 115 | 172 | 266 | 360 | 581 | 801 |
| 2026-04-11 07:00 | 2.86 | 201 | 6640 (1994) | 48 (1941) | 328 | 60 | 70 | 102 | 115 | 172 | 266 | 360 | 581 | 801 |
| 2026-04-11 06:00 | 2.86 | 201 | 6640 (1994) | 48 (1941) | 328 | 60 | 70 | 102 | 115 | 172 | 266 | 360 | 581 | 801 |
| 2026-04-11 05:00 | 2.86 | 201 | 6640 (1994) | 48 (1941) | 328 | 60 | 70 | 102 | 115 | 172 | 266 | 360 | 581 | 801 |
| 2026-04-11 04:00 | 2.86 | 201 | 6640 (1994) | 48 (1941) | 328 | 60 | 70 | 102 | 115 | 172 | 266 | 360 | 581 | 801 |
| 2026-04-11 03:00 | 2.86 | 201 | 6640 (1994) | 48 (1941) | 328 | 60 | 70 | 102 | 115 | 172 | 266 | 360 | 581 | 801 |
| 2026-04-11 02:00 | 2.86 | 201 | 6640 (1994) | 48 (1941) | 328 | 60 | 70 | 102 | 115 | 172 | 266 | 360 | 581 | 801 |
| 2026-04-11 01:00 | 2.87 | 203 | 6640 (1994) | 48 (1941) | 328 | 60 | 70 | 102 | 115 | 172 | 266 | 360 | 581 | 801 |
| 2026-04-11 00:00 | 2.87 | 203 | 6640 (1994) | 48 (1941) | 328 | 60 | 70 | 102 | 115 | 172 | 266 | 360 | 581 | 801 |
| 2026-04-10 23:00 | 2.88 | 205 | 6640 (1994) | 48 (1941) | 328 | 60 | 70 | 102 | 115 | 172 | 266 | 360 | 581 | 801 |
| 2026-04-10 22:00 | 2.88 | 205 | 4640 (2008) | 43 (1954) | 295 | 61 | 71 | 96 | 106 | 157 | 250 | 263 | 516 | 688 |
| 2026-04-10 21:00 | 2.88 | 205 | 4640 (2008) | 43 (1954) | 295 | 61 | 71 | 96 | 106 | 157 | 250 | 263 | 516 | 688 |
| 2026-04-10 20:00 | 2.88 | 205 | 4640 (2008) | 43 (1954) | 295 | 61 | 71 | 96 | 106 | 157 | 250 | 263 | 516 | 688 |
| 2026-04-10 19:00 | 2.89 | 207 | 4640 (2008) | 43 (1954) | 295 | 61 | 71 | 96 | 106 | 157 | 250 | 263 | 516 | 688 |
| 2026-04-10 18:00 | 2.89 | 207 | 4640 (2008) | 43 (1954) | 295 | 61 | 71 | 96 | 106 | 157 | 250 | 263 | 516 | 688 |
| 2026-04-10 17:00 | 2.89 | 207 | 4640 (2008) | 43 (1954) | 295 | 61 | 71 | 96 | 106 | 157 | 250 | 263 | 516 | 688 |
| 2026-04-10 16:00 | 2.89 | 207 | 4640 (2008) | 43 (1954) | 295 | 61 | 71 | 96 | 106 | 157 | 250 | 263 | 516 | 688 |
| 2026-04-10 15:00 | 2.90 | 209 | 4640 (2008) | 43 (1954) | 295 | 61 | 71 | 96 | 106 | 157 | 250 | 263 | 516 | 688 |
| 2026-04-10 14:00 | 2.90 | 209 | 4640 (2008) | 43 (1954) | 295 | 61 | 71 | 96 | 106 | 157 | 250 | 263 | 516 | 688 |
| 2026-04-10 13:00 | 2.90 | 209 | 4640 (2008) | 43 (1954) | 295 | 61 | 71 | 96 | 106 | 157 | 250 | 263 | 516 | 688 |
| 2026-04-10 12:00 | 2.90 | 209 | 4640 (2008) | 43 (1954) | 295 | 61 | 71 | 96 | 106 | 157 | 250 | 263 | 516 | 688 |
| 2026-04-10 11:00 | 2.90 | 209 | 4640 (2008) | 43 (1954) | 295 | 61 | 71 | 96 | 106 | 157 | 250 | 263 | 516 | 688 |
| 2026-04-10 10:00 | 2.90 | 209 | 4640 (2008) | 43 (1954) | 295 | 61 | 71 | 96 | 106 | 157 | 250 | 263 | 516 | 688 |
| 2026-04-10 09:00 | 2.90 | 209 | 4640 (2008) | 43 (1954) | 295 | 61 | 71 | 96 | 106 | 157 | 250 | 263 | 516 | 688 |
| 2026-04-10 08:00 | 2.91 | 211 | 4640 (2008) | 43 (1954) | 295 | 61 | 71 | 96 | 106 | 157 | 250 | 263 | 516 | 688 |
| 2026-04-10 07:00 | 2.91 | 211 | 4640 (2008) | 43 (1954) | 295 | 61 | 71 | 96 | 106 | 157 | 250 | 263 | 516 | 688 |
| 2026-04-10 06:00 | 2.91 | 211 | 4640 (2008) | 43 (1954) | 295 | 61 | 71 | 96 | 106 | 157 | 250 | 263 | 516 | 688 |
| 2026-04-10 05:00 | 2.92 | 213 | 4640 (2008) | 43 (1954) | 295 | 61 | 71 | 96 | 106 | 157 | 250 | 263 | 516 | 688 |
| 2026-04-10 04:00 | 2.92 | 213 | 4640 (2008) | 43 (1954) | 295 | 61 | 71 | 96 | 106 | 157 | 250 | 263 | 516 | 688 |
| 2026-04-10 03:00 | 2.92 | 213 | 4640 (2008) | 43 (1954) | 295 | 61 | 71 | 96 | 106 | 157 | 250 | 263 | 516 | 688 |
| 2026-04-10 02:00 | 2.92 | 213 | 4640 (2008) | 43 (1954) | 295 | 61 | 71 | 96 | 106 | 157 | 250 | 263 | 516 | 688 |
| 2026-04-10 01:00 | 2.92 | 213 | 4640 (2008) | 43 (1954) | 295 | 61 | 71 | 96 | 106 | 157 | 250 | 263 | 516 | 688 |
| 2026-04-10 00:00 | 2.93 | 216 | 4640 (2008) | 43 (1954) | 295 | 61 | 71 | 96 | 106 | 157 | 250 | 263 | 516 | 688 |
| 2026-04-09 23:00 | 2.93 | 216 | 4640 (2008) | 43 (1954) | 295 | 61 | 71 | 96 | 106 | 157 | 250 | 263 | 516 | 688 |
A total of 738 rows are displayed for years 1929 through 2025.